CMA27S LFPG-ZSPD

Flight info

Callsign CMA27S
Flight time 11h 42m
Altitude 31000
Route LANVI DCT LUPEN/N0484F330 UM164 UTABA DCT INPUL DCT VATET DCT MOPUG DCT ASNEL DCT UDROS UM859 KARDE UL851 TBN UM11 REBLO M11 MATAL/N0484F350 M11 LUSAL N199 RASAM L88 METKA B476 TIMGA A480 OTBOR/K0889F350 N147 ELAHA Z621 ARBOL M610 RULAD/K0885S1070 A343 POSOT B215 IGBIS/K0878S1130 B215 FKG W188 LIKMI W270 DKO W69 HUR B339 SOTMU/K0885S1160 W98 ELKUR W40 DOXAB/K0887S1130 W40 YQG/K0882S1160 W142 DALIM/K0885S1130 A593 DPX A470 DALNU W166 ZJ W167 SASAN SAS93A
Aircraft B77L/H-SDE1E2E3FGHIJ2J3J4J5M1RWXY/LB1D1

Departure

Time 2026-05-07 11:30
Airport Charles de Gaulle International Airport (LFPG)

Arrival

Time 2026-05-07 23:13
Airport Shanghai Pudong International Airport (ZSPD)
Time Latitude Longitude Altitude Speed Heading
2026-05-07 11:17 48.99024 2.53240 333 ft 0 kts 266°
2026-05-07 11:20 48.99024 2.53255 334 ft 2 kts 263°
2026-05-07 11:20 48.99026 2.53280 333 ft 2 kts 263°
2026-05-07 11:21 48.99028 2.53305 333 ft 2 kts 260°
2026-05-07 11:21 48.99032 2.53330 333 ft 2 kts 254°
2026-05-07 11:21 48.99037 2.53353 333 ft 2 kts 237°
2026-05-07 11:21 48.99049 2.53370 333 ft 2 kts 188°
2026-05-07 11:22 48.99059 2.53371 333 ft 1 kts 175°
2026-05-07 11:22 48.99045 2.53373 333 ft 9 kts 171°
2026-05-07 11:23 48.99002 2.53449 334 ft 11 kts 90°
2026-05-07 11:23 48.99058 2.53503 336 ft 11 kts 359°
2026-05-07 11:23 48.99130 2.53498 335 ft 11 kts 359°
2026-05-07 11:23 48.99206 2.53492 333 ft 11 kts 356°
2026-05-07 11:24 48.99281 2.53485 338 ft 11 kts 356°
2026-05-07 11:24 48.99357 2.53478 334 ft 11 kts 356°
2026-05-07 11:24 48.99433 2.53471 335 ft 11 kts 356°
2026-05-07 11:24 48.99508 2.53464 334 ft 11 kts 356°
2026-05-07 11:25 48.99583 2.53448 336 ft 11 kts 352°
2026-05-07 11:25 48.99655 2.53467 335 ft 11 kts 27°
2026-05-07 11:25 48.99718 2.53534 333 ft 11 kts 41°
2026-05-07 11:25 48.99775 2.53611 335 ft 11 kts 50°
2026-05-07 11:26 48.99800 2.53720 334 ft 11 kts 80°
2026-05-07 11:26 48.99807 2.53835 338 ft 11 kts 86°
2026-05-07 11:26 48.99812 2.53952 335 ft 11 kts 85°
2026-05-07 11:26 48.99818 2.54067 338 ft 11 kts 85°
2026-05-07 11:27 48.99825 2.54184 337 ft 11 kts 83°
2026-05-07 11:27 48.99834 2.54299 336 ft 11 kts 84°
2026-05-07 11:27 48.99840 2.54415 338 ft 11 kts 85°
2026-05-07 11:27 48.99847 2.54532 334 ft 11 kts 85°
2026-05-07 11:28 48.99853 2.54647 336 ft 11 kts 85°
2026-05-07 11:28 48.99846 2.54762 334 ft 11 kts 113°
2026-05-07 11:28 48.99786 2.54833 337 ft 11 kts 150°
2026-05-07 11:28 48.99731 2.54913 351 ft 11 kts 122°
2026-05-07 11:29 48.99695 2.55017 337 ft 11 kts 117°
2026-05-07 11:29 48.99663 2.55123 336 ft 11 kts 114°
2026-05-07 11:29 48.99625 2.55258 335 ft 30 kts 113°
2026-05-07 11:29 48.99614 2.56042 357 ft 119 kts 85°
2026-05-07 11:30 48.99707 2.57736 366 ft 200 kts 84°
2026-05-07 11:30 48.99833 2.59840 1375 ft 192 kts 84°
2026-05-07 11:30 48.99947 2.61950 2231 ft 207 kts 84°
2026-05-07 11:30 49.00064 2.64289 2566 ft 238 kts 85°
2026-05-07 11:31 49.00194 2.66879 3154 ft 250 kts 85°
2026-05-07 11:31 49.00331 2.69545 3827 ft 258 kts 85°
2026-05-07 11:31 49.00473 2.72317 4581 ft 264 kts 85°
2026-05-07 11:31 49.00617 2.75128 5386 ft 267 kts 85°
2026-05-07 11:32 49.00555 2.80781 6857 ft 272 kts 100°
2026-05-07 11:32 49.00206 2.83635 7575 ft 276 kts 101°
2026-05-07 11:32 48.99862 2.86505 8279 ft 281 kts 100°
2026-05-07 11:33 48.99533 2.89464 8975 ft 285 kts 100°
2026-05-07 11:33 48.99208 2.92475 9696 ft 289 kts 99°
2026-05-07 11:33 48.98884 2.95525 10344 ft 295 kts 99°
2026-05-07 11:33 48.98588 2.98672 10627 ft 315 kts 98°
2026-05-07 11:34 48.98302 3.02104 10819 ft 337 kts 97°
2026-05-07 11:34 48.98003 3.05793 11002 ft 360 kts 97°
2026-05-07 11:34 48.97685 3.09679 11403 ft 376 kts 97°
2026-05-07 11:34 48.97359 3.13616 11978 ft 385 kts 97°
2026-05-07 11:35 48.97016 3.17691 12716 ft 390 kts 97°
2026-05-07 11:35 48.96668 3.21813 13510 ft 394 kts 97°
2026-05-07 11:35 48.96317 3.25966 14237 ft 398 kts 97°
2026-05-07 11:35 48.95960 3.30165 14920 ft 402 kts 97°
2026-05-07 11:36 48.95594 3.34426 15604 ft 406 kts 98°
2026-05-07 11:36 48.95350 3.37249 16053 ft 408 kts 98°
2026-05-07 11:36 48.94855 3.42962 16948 ft 413 kts 98°
2026-05-07 11:36 48.94477 3.47329 17610 ft 417 kts 98°
2026-05-07 11:37 48.94093 3.51725 18275 ft 421 kts 98°
2026-05-07 11:37 48.93836 3.54659 18662 ft 424 kts 97°
2026-05-07 11:37 48.93509 3.59139 19223 ft 427 kts 95°
2026-05-07 11:37 48.93268 3.63659 19800 ft 430 kts 94°
2026-05-07 11:38 48.93054 3.68223 20368 ft 434 kts 94°
2026-05-07 11:38 48.92838 3.72818 20922 ft 437 kts 94°
2026-05-07 11:38 48.92610 3.77443 21470 ft 441 kts 95°
2026-05-07 11:38 48.92368 3.82117 22016 ft 444 kts 95°
2026-05-07 11:39 48.92119 3.86767 22566 ft 448 kts 95°
2026-05-07 11:39 48.91858 3.91507 23094 ft 452 kts 95°
2026-05-07 11:39 48.91592 3.96289 23640 ft 455 kts 95°
2026-05-07 11:39 48.91322 4.01102 24078 ft 459 kts 95°
2026-05-07 11:40 48.91048 4.05980 24545 ft 461 kts 95°
2026-05-07 11:40 48.90772 4.10861 25007 ft 464 kts 95°
2026-05-07 11:40 48.90496 4.15713 25451 ft 467 kts 95°
2026-05-07 11:40 48.90192 4.20645 25861 ft 467 kts 98°
2026-05-07 11:41 48.89368 4.25373 26126 ft 471 kts 116°
2026-05-07 11:41 48.87778 4.29729 26460 ft 471 kts 121°
2026-05-07 11:41 48.86106 4.34042 26835 ft 474 kts 121°
2026-05-07 11:41 48.84453 4.38347 27248 ft 477 kts 121°
2026-05-07 11:42 48.82793 4.42734 27685 ft 479 kts 120°
2026-05-07 11:42 48.81147 4.47147 28090 ft 481 kts 120°
2026-05-07 11:42 48.79505 4.51586 28490 ft 484 kts 120°
2026-05-07 11:42 48.77853 4.56071 28847 ft 487 kts 120°
2026-05-07 11:43 48.76220 4.60502 29207 ft 490 kts 120°
2026-05-07 11:43 48.74535 4.65072 29543 ft 492 kts 120°
2026-05-07 11:43 48.72879 4.69552 29953 ft 493 kts 120°
2026-05-07 11:43 48.71198 4.74088 30400 ft 491 kts 120°
2026-05-07 11:44 48.69522 4.78605 30829 ft 490 kts 120°
2026-05-07 11:44 48.67848 4.83106 31025 ft 492 kts 120°
2026-05-07 11:44 48.66164 4.87624 31061 ft 492 kts 120°
2026-05-07 11:45 48.62816 4.96578 31070 ft 491 kts 120°
2026-05-07 11:45 48.59455 5.05551 31080 ft 490 kts 120°
2026-05-07 11:46 48.56082 5.14514 31075 ft 491 kts 120°
2026-05-07 11:46 48.52692 5.23479 31063 ft 491 kts 120°
2026-05-07 11:47 48.49300 5.32428 31061 ft 491 kts 120°
2026-05-07 11:47 48.45909 5.41347 31057 ft 491 kts 120°
2026-05-07 11:48 48.42508 5.50265 31052 ft 491 kts 120°
2026-05-07 11:48 48.39099 5.59175 31055 ft 491 kts 120°
2026-05-07 11:49 48.35690 5.68053 31040 ft 491 kts 120°
2026-05-07 11:49 48.32368 5.76963 31041 ft 489 kts 112°
2026-05-07 11:49 48.31459 5.81886 31053 ft 490 kts 96°
2026-05-07 11:50 48.31504 5.86975 31046 ft 486 kts 81°
2026-05-07 11:50 48.32409 5.97116 31059 ft 492 kts 82°
2026-05-07 11:51 48.33173 6.07320 31048 ft 490 kts 83°
2026-05-07 11:51 48.33873 6.17493 31042 ft 489 kts 84°
2026-05-07 11:52 48.34558 6.27654 31053 ft 490 kts 84°
2026-05-07 11:52 48.35242 6.37853 31049 ft 491 kts 84°
2026-05-07 11:53 48.35919 6.48022 31050 ft 491 kts 84°
2026-05-07 11:53 48.36593 6.58296 31051 ft 492 kts 84°
2026-05-07 11:54 48.37253 6.68511 31055 ft 492 kts 84°
2026-05-07 11:54 48.37904 6.78720 31050 ft 492 kts 84°
2026-05-07 11:55 48.38550 6.88994 31052 ft 493 kts 84°
2026-05-07 11:55 48.39187 6.99273 31053 ft 493 kts 84°
2026-05-07 11:56 48.39813 7.09525 31053 ft 494 kts 84°
2026-05-07 11:56 48.40431 7.19802 31051 ft 494 kts 84°
2026-05-07 11:57 48.41042 7.30111 31049 ft 494 kts 85°
2026-05-07 11:57 48.41642 7.40403 31043 ft 493 kts 85°
2026-05-07 11:58 48.42228 7.50617 31048 ft 493 kts 85°
2026-05-07 11:58 48.42808 7.60892 31054 ft 493 kts 85°
2026-05-07 11:59 48.43318 7.71190 31038 ft 492 kts 89°
2026-05-07 11:59 48.42827 7.81459 31054 ft 491 kts 99°
2026-05-07 12:00 48.41782 7.91571 31052 ft 492 kts 99°
2026-05-07 12:00 48.40738 8.01728 31047 ft 491 kts 99°
2026-05-07 12:01 48.39713 8.11935 31050 ft 491 kts 98°
2026-05-07 12:01 48.38700 8.22062 31047 ft 491 kts 98°
2026-05-07 12:02 48.37677 8.32196 31041 ft 491 kts 98°
2026-05-07 12:02 48.36640 8.42369 31035 ft 491 kts 98°
2026-05-07 12:03 48.35598 8.52492 31034 ft 491 kts 98°
2026-05-07 12:03 48.34539 8.62676 31034 ft 492 kts 98°
2026-05-07 12:04 48.33476 8.72806 31034 ft 492 kts 98°
2026-05-07 12:04 48.32401 8.82968 31024 ft 492 kts 98°
2026-05-07 12:05 48.31325 8.93058 31025 ft 492 kts 98°
2026-05-07 12:05 48.30235 9.03198 31022 ft 492 kts 98°
2026-05-07 12:06 48.29130 9.13362 31019 ft 492 kts 99°
2026-05-07 12:06 48.28021 9.23488 31022 ft 491 kts 99°
2026-05-07 12:07 48.26904 9.33602 31017 ft 491 kts 99°
2026-05-07 12:07 48.25781 9.43710 31024 ft 491 kts 99°
2026-05-07 12:08 48.24655 9.53775 31023 ft 491 kts 99°
2026-05-07 12:08 48.23517 9.63896 31023 ft 492 kts 99°
2026-05-07 12:09 48.22369 9.74009 31019 ft 492 kts 99°
2026-05-07 12:09 48.21220 9.84065 31023 ft 492 kts 99°
2026-05-07 12:10 48.20052 9.94199 31025 ft 493 kts 99°
2026-05-07 12:10 48.18877 10.04311 31026 ft 493 kts 99°
2026-05-07 12:11 48.17689 10.14450 31016 ft 493 kts 99°
2026-05-07 12:11 48.16498 10.24534 31017 ft 493 kts 99°
2026-05-07 12:12 48.15293 10.34664 31023 ft 494 kts 99°
2026-05-07 12:12 48.14076 10.44806 31018 ft 494 kts 99°
2026-05-07 12:13 48.12858 10.54883 31023 ft 494 kts 100°
2026-05-07 12:13 48.11620 10.65046 31019 ft 495 kts 100°
2026-05-07 12:14 48.10379 10.75155 31024 ft 495 kts 100°
2026-05-07 12:14 48.09123 10.85297 31020 ft 496 kts 100°
2026-05-07 12:15 48.07861 10.95416 31022 ft 496 kts 101°
2026-05-07 12:15 48.06586 11.05576 31019 ft 497 kts 101°
2026-05-07 12:16 48.05300 11.15743 31018 ft 497 kts 101°
2026-05-07 12:16 48.04006 11.25886 31021 ft 497 kts 101°
2026-05-07 12:17 48.02706 11.36016 31022 ft 497 kts 101°
2026-05-07 12:17 48.01391 11.46178 31017 ft 498 kts 102°
2026-05-07 12:18 48.00077 11.56262 31019 ft 498 kts 102°
2026-05-07 12:18 47.98744 11.66419 31012 ft 498 kts 102°
2026-05-07 12:19 47.97400 11.76584 31010 ft 499 kts 102°
2026-05-07 12:19 47.96051 11.86721 31009 ft 499 kts 103°
2026-05-07 12:20 47.94684 11.96914 31008 ft 500 kts 103°
2026-05-07 12:20 47.93320 12.07011 31009 ft 500 kts 103°
2026-05-07 12:21 47.91934 12.17205 31014 ft 500 kts 104°
2026-05-07 12:21 47.90546 12.27341 31011 ft 501 kts 104°
2026-05-07 12:22 47.89144 12.37505 31008 ft 501 kts 104°
2026-05-07 12:22 47.87731 12.47675 31008 ft 501 kts 104°
2026-05-07 12:23 47.86306 12.57861 31015 ft 501 kts 105°
2026-05-07 12:23 47.84878 12.68012 31013 ft 501 kts 105°
2026-05-07 12:24 47.83411 12.78102 31016 ft 500 kts 107°
2026-05-07 12:24 47.81619 12.88102 31026 ft 499 kts 109°
2026-05-07 12:25 47.79741 12.98051 31022 ft 499 kts 110°
2026-05-07 12:25 47.77899 13.08008 31019 ft 499 kts 110°
2026-05-07 12:26 47.76087 13.17923 31042 ft 499 kts 110°
2026-05-07 12:26 47.74269 13.27858 31009 ft 497 kts 110°
2026-05-07 12:27 47.72443 13.37763 30989 ft 498 kts 110°
2026-05-07 12:27 47.70604 13.47661 31001 ft 499 kts 111°
2026-05-07 12:28 47.69055 13.55983 30998 ft 499 kts 111°
2026-05-07 12:28 47.67204 13.65874 30982 ft 498 kts 111°
2026-05-07 12:29 47.65341 13.75762 30974 ft 498 kts 111°
2026-05-07 12:29 47.63460 13.85681 30974 ft 499 kts 111°
2026-05-07 12:30 47.61586 13.95531 30979 ft 498 kts 112°
2026-05-07 12:30 47.59697 14.05425 30980 ft 498 kts 111°
2026-05-07 12:31 47.57873 14.15393 30974 ft 501 kts 111°
2026-05-07 12:31 47.56078 14.25328 30959 ft 500 kts 111°
2026-05-07 12:32 47.54277 14.35203 30954 ft 499 kts 111°
2026-05-07 12:32 47.52449 14.45115 30952 ft 500 kts 112°
2026-05-07 12:33 47.49676 14.60018 30942 ft 500 kts 112°
2026-05-07 12:33 47.47828 14.69883 30927 ft 500 kts 112°
2026-05-07 12:34 47.45971 14.79747 30934 ft 499 kts 112°
2026-05-07 12:34 47.44106 14.89626 30926 ft 498 kts 112°
2026-05-07 12:35 47.42229 14.99489 30927 ft 500 kts 112°
2026-05-07 12:35 47.40343 15.09354 30947 ft 500 kts 112°
2026-05-07 12:36 47.39387 15.14328 31167 ft 503 kts 112°
2026-05-07 12:36 47.38444 15.19228 31570 ft 500 kts 112°
2026-05-07 12:36 47.37484 15.24215 32038 ft 497 kts 112°
2026-05-07 12:36 47.36549 15.29066 32450 ft 495 kts 112°
2026-05-07 12:37 47.35604 15.33945 32810 ft 495 kts 112°
2026-05-07 12:37 47.34648 15.38856 32892 ft 499 kts 112°
2026-05-07 12:37 47.32736 15.48641 32934 ft 498 kts 112°
2026-05-07 12:38 47.30819 15.58421 32937 ft 496 kts 112°
2026-05-07 12:38 47.28898 15.68176 32943 ft 495 kts 112°
2026-05-07 12:39 47.26968 15.77918 32956 ft 496 kts 113°
2026-05-07 12:39 47.25023 15.87681 32950 ft 495 kts 113°
2026-05-07 12:40 47.23082 15.97380 32956 ft 496 kts 113°
2026-05-07 12:40 47.21127 16.07103 32954 ft 496 kts 113°
2026-05-07 12:41 47.19160 16.16840 32955 ft 496 kts 113°
2026-05-07 12:41 47.17193 16.26528 32975 ft 496 kts 113°
2026-05-07 12:42 47.15216 16.36216 32968 ft 496 kts 114°
2026-05-07 12:42 47.13227 16.45917 32966 ft 496 kts 114°
2026-05-07 12:43 47.11224 16.55636 32972 ft 496 kts 114°
2026-05-07 12:43 47.09228 16.65276 32971 ft 496 kts 114°
2026-05-07 12:44 47.07215 16.74954 32980 ft 496 kts 114°
2026-05-07 12:44 47.05185 16.84660 32992 ft 497 kts 114°
2026-05-07 12:45 47.03156 16.94317 32991 ft 500 kts 114°
2026-05-07 12:45 47.01109 17.04021 32947 ft 497 kts 114°
2026-05-07 12:46 46.99059 17.13697 32989 ft 498 kts 114°
2026-05-07 12:46 46.96984 17.23421 33000 ft 500 kts 114°
2026-05-07 12:47 46.94912 17.33104 32991 ft 500 kts 114°
2026-05-07 12:47 46.92823 17.42823 32996 ft 500 kts 114°
2026-05-07 12:48 46.90725 17.52532 32997 ft 500 kts 114°
2026-05-07 12:48 46.88620 17.62233 33003 ft 500 kts 114°
2026-05-07 12:49 46.86515 17.71881 32992 ft 500 kts 114°
2026-05-07 12:49 46.84392 17.81571 32996 ft 500 kts 114°
2026-05-07 12:50 46.82264 17.91238 32997 ft 499 kts 114°
2026-05-07 12:50 46.80129 18.00889 33006 ft 499 kts 114°
2026-05-07 12:51 46.77997 18.10483 33001 ft 500 kts 114°
2026-05-07 12:51 46.75846 18.20121 33000 ft 499 kts 114°
2026-05-07 12:52 46.73685 18.29756 32996 ft 500 kts 114°
2026-05-07 12:52 46.71515 18.39394 33001 ft 500 kts 114°
2026-05-07 12:53 46.69350 18.48959 33001 ft 500 kts 114°
2026-05-07 12:53 46.67167 18.58566 33003 ft 499 kts 114°
2026-05-07 12:54 46.64975 18.68168 32998 ft 499 kts 114°
2026-05-07 12:54 46.62772 18.77774 33001 ft 499 kts 114°
2026-05-07 12:55 46.60565 18.87356 32994 ft 499 kts 114°
2026-05-07 12:55 46.58362 18.96876 32993 ft 499 kts 114°
2026-05-07 12:56 46.56133 19.06471 32992 ft 500 kts 114°
2026-05-07 12:56 46.53897 19.16046 33000 ft 500 kts 114°
2026-05-07 12:57 46.51659 19.25595 33006 ft 500 kts 114°
2026-05-07 12:57 46.49418 19.35115 33004 ft 500 kts 114°
2026-05-07 12:58 46.47159 19.44670 32994 ft 500 kts 114°
2026-05-07 12:58 46.44894 19.54209 33014 ft 500 kts 114°
2026-05-07 12:59 46.42636 19.63674 32996 ft 499 kts 114°
2026-05-07 12:59 46.40348 19.73226 32998 ft 499 kts 114°
2026-05-07 13:00 46.38070 19.82694 32996 ft 498 kts 114°
2026-05-07 13:00 46.35786 19.92147 32994 ft 497 kts 114°
2026-05-07 13:01 46.33503 20.01555 32997 ft 497 kts 114°
2026-05-07 13:01 46.31206 20.10978 32998 ft 497 kts 114°
2026-05-07 13:02 46.28908 20.20369 33005 ft 497 kts 114°
2026-05-07 13:02 46.26589 20.29805 32995 ft 497 kts 114°
2026-05-07 13:03 46.24264 20.39225 32998 ft 497 kts 114°
2026-05-07 13:03 46.21931 20.48639 33008 ft 497 kts 114°
2026-05-07 13:04 46.19599 20.58010 32994 ft 497 kts 114°
2026-05-07 13:04 46.17260 20.67374 32996 ft 497 kts 114°
2026-05-07 13:05 46.14889 20.76757 33001 ft 497 kts 114°
2026-05-07 13:05 46.12468 20.86114 33017 ft 498 kts 114°
2026-05-07 13:06 46.10029 20.95477 33024 ft 498 kts 114°
2026-05-07 13:06 46.07600 21.04790 33033 ft 498 kts 114°
2026-05-07 13:07 46.05167 21.14095 33038 ft 499 kts 114°
2026-05-07 13:07 46.02707 21.23473 33040 ft 499 kts 114°
2026-05-07 13:08 46.00253 21.32788 33045 ft 499 kts 114°
2026-05-07 13:08 45.97782 21.42129 33039 ft 499 kts 114°
2026-05-07 13:09 45.95319 21.51405 33036 ft 499 kts 114°
2026-05-07 13:09 45.92824 21.60760 33032 ft 500 kts 114°
2026-05-07 13:10 45.90335 21.70060 33017 ft 499 kts 114°
2026-05-07 13:10 45.87832 21.79373 33014 ft 500 kts 115°
2026-05-07 13:11 45.85332 21.88637 33012 ft 500 kts 115°
2026-05-07 13:11 45.82808 21.97956 33012 ft 500 kts 115°
2026-05-07 13:12 45.80284 22.07236 33017 ft 501 kts 115°
2026-05-07 13:12 45.77747 22.16532 33015 ft 501 kts 115°
2026-05-07 13:13 45.75195 22.25846 33019 ft 502 kts 115°
2026-05-07 13:13 45.72649 22.35101 33021 ft 502 kts 115°
2026-05-07 13:14 45.70068 22.44448 33012 ft 504 kts 115°
2026-05-07 13:14 45.67498 22.53714 33016 ft 504 kts 115°
2026-05-07 13:15 45.64892 22.63075 33036 ft 506 kts 115°
2026-05-07 13:15 45.62282 22.72422 33034 ft 507 kts 116°
2026-05-07 13:16 45.59665 22.81757 33015 ft 507 kts 116°
2026-05-07 13:16 45.57044 22.91065 33022 ft 508 kts 116°
2026-05-07 13:17 45.54402 23.00414 33038 ft 509 kts 116°
2026-05-07 13:17 45.51747 23.09771 33041 ft 510 kts 116°
2026-05-07 13:18 45.49067 23.19183 33041 ft 510 kts 116°
2026-05-07 13:18 45.46406 23.28495 33051 ft 510 kts 116°
2026-05-07 13:19 45.43725 23.37838 33046 ft 510 kts 116°
2026-05-07 13:19 45.41030 23.47196 33055 ft 510 kts 116°
2026-05-07 13:20 45.38785 23.54961 33052 ft 510 kts 116°
2026-05-07 13:20 45.36084 23.64278 33051 ft 510 kts 116°
2026-05-07 13:21 45.33364 23.73611 33059 ft 512 kts 116°
2026-05-07 13:21 45.30637 23.82945 33058 ft 511 kts 115°
2026-05-07 13:22 45.27904 23.92267 33057 ft 511 kts 115°
2026-05-07 13:22 45.25156 24.01595 33051 ft 512 kts 115°
2026-05-07 13:23 45.22415 24.10869 33054 ft 512 kts 115°
2026-05-07 13:23 45.19648 24.20202 33049 ft 513 kts 115°
2026-05-07 13:24 45.16868 24.29543 33043 ft 514 kts 115°
2026-05-07 13:24 45.14098 24.38813 33035 ft 513 kts 115°
2026-05-07 13:25 45.11304 24.48130 33034 ft 513 kts 115°
2026-05-07 13:25 45.08504 24.57430 33036 ft 514 kts 115°
2026-05-07 13:26 45.05712 24.66673 33032 ft 514 kts 115°
2026-05-07 13:26 45.02893 24.75971 33037 ft 513 kts 115°
2026-05-07 13:27 45.00076 24.85228 33034 ft 513 kts 115°
2026-05-07 13:27 44.97253 24.94471 33041 ft 514 kts 115°
2026-05-07 13:28 44.94414 25.03732 33029 ft 514 kts 115°
2026-05-07 13:28 44.91572 25.12970 33032 ft 513 kts 115°
2026-05-07 13:29 44.88715 25.22221 33032 ft 514 kts 115°
2026-05-07 13:29 44.85863 25.31425 33034 ft 514 kts 115°
2026-05-07 13:30 44.82996 25.40644 33028 ft 514 kts 115°
2026-05-07 13:30 44.80130 25.49825 33030 ft 514 kts 115°
2026-05-07 13:31 44.77248 25.59025 33026 ft 514 kts 114°
2026-05-07 13:31 44.74356 25.68226 33024 ft 514 kts 114°
2026-05-07 13:32 44.71456 25.77420 33030 ft 514 kts 114°
2026-05-07 13:32 44.68548 25.86603 33039 ft 514 kts 114°
2026-05-07 13:33 44.65653 25.95717 33058 ft 514 kts 114°
2026-05-07 13:33 44.62728 26.04885 33041 ft 514 kts 114°
2026-05-07 13:34 44.58328 26.18628 33043 ft 514 kts 114°
2026-05-07 13:35 44.55401 26.27732 33035 ft 514 kts 114°
2026-05-07 13:35 44.52302 26.36764 33052 ft 514 kts 118°
2026-05-07 13:36 44.48842 26.45561 33032 ft 514 kts 119°
2026-05-07 13:36 44.45366 26.54294 33024 ft 515 kts 119°
2026-05-07 13:37 44.41905 26.63025 33030 ft 516 kts 119°
2026-05-07 13:37 44.38422 26.71826 33036 ft 515 kts 118°
2026-05-07 13:38 44.34943 26.80598 33042 ft 516 kts 118°
2026-05-07 13:38 44.31454 26.89369 33050 ft 517 kts 118°
2026-05-07 13:39 44.27971 26.98094 33026 ft 518 kts 119°
2026-05-07 13:39 44.24443 27.06898 33039 ft 518 kts 119°
2026-05-07 13:40 44.20929 27.15645 33049 ft 519 kts 119°
2026-05-07 13:40 44.17392 27.24424 33051 ft 519 kts 119°
2026-05-07 13:41 44.13862 27.33157 33050 ft 520 kts 118°
2026-05-07 13:41 44.10296 27.41949 33074 ft 520 kts 118°
2026-05-07 13:42 44.06739 27.50695 33062 ft 521 kts 118°
2026-05-07 13:42 44.03173 27.59433 33072 ft 521 kts 118°
2026-05-07 13:43 43.99583 27.68205 33085 ft 521 kts 118°
2026-05-07 13:43 43.96005 27.76921 33075 ft 522 kts 118°
2026-05-07 13:44 43.92396 27.85685 33085 ft 522 kts 118°
2026-05-07 13:44 43.88796 27.94403 33097 ft 523 kts 118°
2026-05-07 13:45 43.85169 28.03158 33101 ft 523 kts 118°
2026-05-07 13:45 43.81531 28.11909 33102 ft 523 kts 118°
2026-05-07 13:46 43.77916 28.20581 33109 ft 523 kts 118°
2026-05-07 13:46 43.74277 28.29287 33112 ft 524 kts 118°
2026-05-07 13:47 43.70610 28.38030 33118 ft 524 kts 118°
2026-05-07 13:47 43.66961 28.46702 33118 ft 524 kts 118°
2026-05-07 13:48 43.63285 28.55415 33126 ft 524 kts 118°
2026-05-07 13:48 43.59595 28.64136 33125 ft 525 kts 118°
2026-05-07 13:49 43.55919 28.72796 33137 ft 525 kts 118°
2026-05-07 13:49 43.52240 28.81437 33133 ft 525 kts 118°
2026-05-07 13:50 43.48533 28.90117 33139 ft 525 kts 118°
2026-05-07 13:50 43.44827 28.98769 33140 ft 525 kts 118°
2026-05-07 13:51 43.41119 29.07401 33144 ft 525 kts 118°
2026-05-07 13:51 43.37393 29.16048 33146 ft 525 kts 118°
2026-05-07 13:52 43.33671 29.24663 33138 ft 525 kts 118°
2026-05-07 13:52 43.29939 29.33273 33145 ft 525 kts 118°
2026-05-07 13:53 43.26206 29.41858 33146 ft 524 kts 118°
2026-05-07 13:53 43.22459 29.50453 33146 ft 524 kts 118°
2026-05-07 13:54 43.18718 29.59007 33144 ft 524 kts 118°
2026-05-07 13:54 43.14979 29.67533 33146 ft 523 kts 118°
2026-05-07 13:55 43.11239 29.76036 33148 ft 522 kts 118°
2026-05-07 13:55 43.07484 29.84549 33146 ft 521 kts 119°
2026-05-07 13:56 43.03724 29.93048 33143 ft 521 kts 119°
2026-05-07 13:56 42.99992 30.01458 33142 ft 520 kts 119°
2026-05-07 13:57 42.96247 30.09874 33140 ft 519 kts 119°
2026-05-07 13:57 42.92491 30.18292 33143 ft 518 kts 119°
2026-05-07 13:58 42.88735 30.26684 33148 ft 518 kts 119°
2026-05-07 13:58 42.84977 30.35059 33149 ft 517 kts 119°
2026-05-07 13:59 42.81212 30.43423 33131 ft 517 kts 119°
2026-05-07 13:59 42.77466 30.51726 33135 ft 517 kts 119°
2026-05-07 14:00 42.74385 30.60475 33139 ft 511 kts 105°
2026-05-07 14:00 42.72736 30.69820 33141 ft 505 kts 94°
2026-05-07 14:01 42.71844 30.79251 33145 ft 505 kts 93°
2026-05-07 14:01 42.70940 30.88728 33141 ft 505 kts 94°
2026-05-07 14:02 42.69984 30.98213 33141 ft 505 kts 94°
2026-05-07 14:02 42.69005 31.07639 33140 ft 505 kts 94°
2026-05-07 14:03 42.68011 31.17118 33134 ft 505 kts 94°
2026-05-07 14:03 42.67015 31.26562 33151 ft 505 kts 94°
2026-05-07 14:04 42.66015 31.35986 33149 ft 506 kts 94°
2026-05-07 14:04 42.65001 31.45464 33148 ft 506 kts 94°
2026-05-07 14:05 42.63978 31.54944 33138 ft 506 kts 94°
2026-05-07 14:05 42.62957 31.64338 33145 ft 506 kts 94°
2026-05-07 14:06 42.61919 31.73810 33142 ft 506 kts 94°
2026-05-07 14:06 42.60878 31.83228 33145 ft 505 kts 94°
2026-05-07 14:07 42.59831 31.92627 33143 ft 505 kts 94°
2026-05-07 14:07 42.58775 32.02042 33142 ft 504 kts 94°
2026-05-07 14:08 42.57614 32.11452 33151 ft 505 kts 95°
2026-05-07 14:08 42.56549 32.20814 33144 ft 504 kts 94°
2026-05-07 14:09 42.55494 32.30200 33140 ft 503 kts 94°
2026-05-07 14:09 42.54420 32.39555 33144 ft 503 kts 95°
2026-05-07 14:10 42.53326 32.48926 33153 ft 503 kts 95°
2026-05-07 14:10 42.52220 32.58313 33143 ft 503 kts 95°
2026-05-07 14:11 42.51110 32.67678 33144 ft 502 kts 95°
2026-05-07 14:11 42.49998 32.77002 33145 ft 502 kts 95°
2026-05-07 14:12 42.48875 32.86342 33145 ft 502 kts 95°
2026-05-07 14:12 42.47753 32.95611 33146 ft 502 kts 95°
2026-05-07 14:13 42.46616 33.04934 33147 ft 501 kts 96°
2026-05-07 14:13 42.45473 33.14257 33148 ft 501 kts 96°
2026-05-07 14:14 42.44339 33.23544 33149 ft 501 kts 96°
2026-05-07 14:14 42.43390 33.31283 33151 ft 501 kts 96°
2026-05-07 14:15 42.42244 33.40568 33155 ft 500 kts 96°
2026-05-07 14:15 42.41080 33.49846 33152 ft 500 kts 96°
2026-05-07 14:16 42.39897 33.59124 33155 ft 500 kts 96°
2026-05-07 14:16 42.38704 33.68423 33165 ft 500 kts 97°
2026-05-07 14:17 42.37511 33.77680 33153 ft 500 kts 97°
2026-05-07 14:17 42.36314 33.86908 33166 ft 500 kts 97°
2026-05-07 14:18 42.35104 33.96206 33156 ft 500 kts 97°
2026-05-07 14:18 42.33899 34.05429 33159 ft 500 kts 97°
2026-05-07 14:19 42.32679 34.14702 33156 ft 500 kts 97°
2026-05-07 14:19 42.31453 34.23959 33155 ft 500 kts 97°
2026-05-07 14:20 42.30222 34.33186 33158 ft 500 kts 97°
2026-05-07 14:20 42.28981 34.42428 33156 ft 500 kts 97°
2026-05-07 14:21 42.27717 34.51670 33158 ft 500 kts 97°
2026-05-07 14:21 42.26451 34.60845 33163 ft 500 kts 97°
2026-05-07 14:22 42.25166 34.70114 33160 ft 501 kts 97°
2026-05-07 14:22 42.23878 34.79363 33150 ft 501 kts 97°
2026-05-07 14:23 42.22597 34.88545 33154 ft 501 kts 97°
2026-05-07 14:23 42.21304 34.97796 33159 ft 501 kts 97°
2026-05-07 14:24 42.20000 35.07049 33158 ft 501 kts 97°
2026-05-07 14:24 42.18699 35.16224 33161 ft 500 kts 97°
2026-05-07 14:25 42.17383 35.25443 33162 ft 500 kts 97°
2026-05-07 14:25 42.16060 35.34661 33166 ft 500 kts 97°
2026-05-07 14:26 42.14735 35.43851 33165 ft 499 kts 97°
2026-05-07 14:26 42.13415 35.52999 33168 ft 498 kts 97°
2026-05-07 14:27 42.12089 35.62145 33166 ft 498 kts 98°
2026-05-07 14:27 42.10753 35.71293 33162 ft 497 kts 98°
2026-05-07 14:28 42.09412 35.80426 33160 ft 496 kts 98°
2026-05-07 14:28 42.08068 35.89514 33178 ft 494 kts 99°
2026-05-07 14:29 42.06728 35.98530 33173 ft 493 kts 99°
2026-05-07 14:29 42.05372 36.07599 33175 ft 492 kts 99°
2026-05-07 14:30 42.04018 36.16609 33170 ft 492 kts 99°
2026-05-07 14:30 42.02664 36.25565 33176 ft 491 kts 99°
2026-05-07 14:31 42.01291 36.34596 33173 ft 490 kts 99°
2026-05-07 14:31 41.99926 36.43523 33171 ft 490 kts 99°
2026-05-07 14:32 41.98544 36.52515 33169 ft 490 kts 99°
2026-05-07 14:32 41.97158 36.61480 33170 ft 490 kts 99°
2026-05-07 14:33 41.95765 36.70444 33170 ft 490 kts 99°
2026-05-07 14:33 41.94365 36.79402 33174 ft 490 kts 99°
2026-05-07 14:34 41.92963 36.88320 33181 ft 490 kts 99°
2026-05-07 14:34 41.91555 36.97237 33177 ft 489 kts 99°
2026-05-07 14:35 41.89922 37.06121 33180 ft 491 kts 107°
2026-05-07 14:35 41.87321 37.14620 33185 ft 493 kts 111°
2026-05-07 14:36 41.84597 37.23069 33173 ft 493 kts 111°
2026-05-07 14:36 41.81920 37.31492 33175 ft 493 kts 111°
2026-05-07 14:37 41.79246 37.39958 33172 ft 493 kts 111°
2026-05-07 14:37 41.75222 37.52649 33178 ft 493 kts 111°
2026-05-07 14:38 41.72532 37.61095 33177 ft 493 kts 111°
2026-05-07 14:38 41.69854 37.69476 33174 ft 492 kts 111°
2026-05-07 14:39 41.67147 37.77904 33176 ft 492 kts 111°
2026-05-07 14:39 41.64432 37.86325 33175 ft 492 kts 111°
2026-05-07 14:40 41.61731 37.94677 33175 ft 492 kts 111°
2026-05-07 14:40 41.59003 38.03089 33181 ft 492 kts 111°
2026-05-07 14:41 41.56286 38.11443 33182 ft 492 kts 111°
2026-05-07 14:41 41.53551 38.19823 33181 ft 492 kts 111°
2026-05-07 14:42 41.50804 38.28216 33183 ft 493 kts 111°
2026-05-07 14:42 41.48069 38.36548 33185 ft 493 kts 111°
2026-05-07 14:43 41.45313 38.44918 33185 ft 493 kts 111°
2026-05-07 14:43 41.42542 38.53305 33185 ft 493 kts 111°
2026-05-07 14:44 41.39788 38.61618 33184 ft 493 kts 112°
2026-05-07 14:44 41.37006 38.69985 33184 ft 494 kts 112°
2026-05-07 14:45 41.34233 38.78308 33179 ft 494 kts 112°
2026-05-07 14:45 41.31472 38.86683 33177 ft 494 kts 111°
2026-05-07 14:46 41.28728 38.95082 33178 ft 494 kts 112°
2026-05-07 14:46 41.25979 39.03449 33183 ft 494 kts 112°
2026-05-07 14:47 41.23232 39.11771 33179 ft 494 kts 112°
2026-05-07 14:47 41.20449 39.20123 33178 ft 494 kts 113°
2026-05-07 14:48 41.17567 39.28386 33188 ft 494 kts 114°
2026-05-07 14:48 41.14642 39.36682 33193 ft 495 kts 114°
2026-05-07 14:49 41.11747 39.44922 33202 ft 494 kts 114°
2026-05-07 14:49 41.08844 39.53185 33208 ft 495 kts 114°
2026-05-07 14:50 41.05922 39.61472 33210 ft 495 kts 114°
2026-05-07 14:50 41.03018 39.69687 33213 ft 495 kts 114°
2026-05-07 14:51 41.00418 39.78121 33204 ft 494 kts 104°
2026-05-07 14:51 40.99214 39.87059 33215 ft 493 kts 92°
2026-05-07 14:52 40.99040 39.96115 33210 ft 494 kts 90°
2026-05-07 14:52 40.98886 40.05224 33195 ft 494 kts 91°
2026-05-07 14:53 40.98663 40.14314 33191 ft 494 kts 91°
2026-05-07 14:53 40.98425 40.23372 33185 ft 494 kts 91°
2026-05-07 14:54 40.98181 40.32476 33193 ft 495 kts 91°
2026-05-07 14:54 40.97931 40.41553 33196 ft 495 kts 91°
2026-05-07 14:55 40.97671 40.50699 33198 ft 495 kts 92°
2026-05-07 14:55 40.97406 40.59760 33199 ft 496 kts 92°
2026-05-07 14:56 40.97132 40.68897 33200 ft 496 kts 92°
2026-05-07 14:56 40.96850 40.78031 33195 ft 496 kts 92°
2026-05-07 14:57 40.96562 40.87184 33195 ft 497 kts 92°
2026-05-07 14:57 40.96267 40.96266 33197 ft 497 kts 92°
2026-05-07 14:58 40.95960 41.05435 33203 ft 498 kts 92°
2026-05-07 14:58 40.95645 41.14606 33202 ft 499 kts 93°
2026-05-07 14:59 40.95323 41.23728 33195 ft 499 kts 93°
2026-05-07 14:59 40.94993 41.32912 33186 ft 499 kts 93°
2026-05-07 15:00 40.94654 41.42090 33191 ft 500 kts 93°
2026-05-07 15:00 40.94308 41.51285 33182 ft 500 kts 94°
2026-05-07 15:01 40.93955 41.60485 33181 ft 500 kts 94°
2026-05-07 15:01 40.93598 41.69617 33180 ft 501 kts 94°
2026-05-07 15:02 40.93230 41.78835 33175 ft 501 kts 94°
2026-05-07 15:02 40.92853 41.88057 33176 ft 502 kts 94°
2026-05-07 15:03 40.92469 41.97278 33168 ft 502 kts 94°
2026-05-07 15:03 40.92082 42.06432 33187 ft 503 kts 94°
2026-05-07 15:04 40.91681 42.15720 33178 ft 503 kts 95°
2026-05-07 15:04 40.91276 42.24916 33186 ft 503 kts 95°
2026-05-07 15:05 40.90863 42.34125 33185 ft 504 kts 95°
2026-05-07 15:05 40.90512 42.41847 33186 ft 504 kts 95°
2026-05-07 15:06 40.90012 42.52630 33190 ft 505 kts 95°
2026-05-07 15:06 40.89646 42.60398 33195 ft 505 kts 95°
2026-05-07 15:07 40.89204 42.69622 33195 ft 505 kts 95°
2026-05-07 15:07 40.88752 42.78920 33193 ft 506 kts 95°
2026-05-07 15:08 40.88293 42.88179 33188 ft 506 kts 95°
2026-05-07 15:08 40.87827 42.97452 33181 ft 507 kts 95°
2026-05-07 15:09 40.87350 43.06799 33180 ft 508 kts 96°
2026-05-07 15:09 40.86868 43.16090 33174 ft 509 kts 96°
2026-05-07 15:10 40.86377 43.25389 33174 ft 509 kts 96°
2026-05-07 15:10 40.85875 43.34765 33170 ft 510 kts 96°
2026-05-07 15:11 40.85368 43.44078 33163 ft 511 kts 96°
2026-05-07 15:11 40.84847 43.53492 33156 ft 511 kts 97°
2026-05-07 15:12 40.84323 43.62849 33162 ft 512 kts 97°
2026-05-07 15:12 40.83826 43.72174 33152 ft 513 kts 95°
2026-05-07 15:13 40.83550 43.81633 33158 ft 514 kts 95°
2026-05-07 15:13 40.83254 43.91020 33158 ft 515 kts 95°
2026-05-07 15:14 40.82937 44.00510 33160 ft 515 kts 95°
2026-05-07 15:14 40.82613 44.09948 33159 ft 516 kts 96°
2026-05-07 15:15 40.82281 44.19377 33182 ft 516 kts 96°
2026-05-07 15:15 40.81940 44.28854 33190 ft 517 kts 96°
2026-05-07 15:16 40.81594 44.38351 33185 ft 517 kts 96°
2026-05-07 15:16 40.81242 44.47829 33191 ft 517 kts 96°
2026-05-07 15:17 40.80880 44.57276 33178 ft 518 kts 96°
2026-05-07 15:17 40.80504 44.66814 33168 ft 519 kts 97°
2026-05-07 15:18 40.80120 44.76362 33171 ft 520 kts 97°
2026-05-07 15:18 40.79733 44.85869 33162 ft 521 kts 97°
2026-05-07 15:19 40.79337 44.95435 33163 ft 521 kts 97°
2026-05-07 15:19 40.78934 45.04998 33143 ft 522 kts 97°
2026-05-07 15:20 40.78520 45.14546 33160 ft 522 kts 97°
2026-05-07 15:20 40.78093 45.24087 33148 ft 523 kts 97°
2026-05-07 15:21 40.77662 45.33685 33146 ft 523 kts 97°
2026-05-07 15:21 40.77229 45.43215 33135 ft 524 kts 97°
2026-05-07 15:22 40.76713 45.52843 33136 ft 522 kts 100°
2026-05-07 15:22 40.75881 45.62292 33142 ft 521 kts 101°
2026-05-07 15:23 40.74983 45.71787 33132 ft 522 kts 102°
2026-05-07 15:23 40.74095 45.81291 33123 ft 522 kts 101°
2026-05-07 15:24 40.73219 45.90792 33113 ft 522 kts 101°
2026-05-07 15:24 40.72338 46.00297 33115 ft 523 kts 102°
2026-05-07 15:25 40.71446 46.09823 33102 ft 523 kts 102°
2026-05-07 15:25 40.70546 46.19348 33100 ft 523 kts 102°
2026-05-07 15:26 40.69634 46.28892 33104 ft 525 kts 102°
2026-05-07 15:26 40.68718 46.38394 33102 ft 526 kts 102°
2026-05-07 15:27 40.67785 46.47984 33098 ft 527 kts 102°
2026-05-07 15:27 40.66842 46.57584 33095 ft 528 kts 102°
2026-05-07 15:28 40.65897 46.67147 33080 ft 530 kts 102°
2026-05-07 15:28 40.64936 46.76787 33062 ft 531 kts 102°
2026-05-07 15:29 40.63965 46.86441 33053 ft 531 kts 103°
2026-05-07 15:29 40.62985 46.96098 33053 ft 532 kts 103°
2026-05-07 15:30 40.62000 47.05721 33044 ft 533 kts 103°
2026-05-07 15:30 40.61000 47.15423 33044 ft 533 kts 103°
2026-05-07 15:31 40.60408 47.25202 33065 ft 538 kts 96°
2026-05-07 15:31 40.60178 47.35033 33042 ft 540 kts 96°
2026-05-07 15:32 40.59929 47.44890 33058 ft 540 kts 97°
2026-05-07 15:32 40.59633 47.54730 33078 ft 540 kts 97°
2026-05-07 15:33 40.59315 47.64622 33083 ft 541 kts 97°
2026-05-07 15:33 40.58992 47.74515 33086 ft 541 kts 97°
2026-05-07 15:34 40.58663 47.84409 33077 ft 542 kts 97°
2026-05-07 15:34 40.58330 47.94336 33081 ft 542 kts 96°
2026-05-07 15:35 40.58504 48.04275 33074 ft 546 kts 91°
2026-05-07 15:35 40.58841 48.14271 33086 ft 546 kts 92°
2026-05-07 15:36 40.59105 48.24186 33081 ft 546 kts 92°
2026-05-07 15:36 40.59371 48.34210 33088 ft 546 kts 92°
2026-05-07 15:37 40.59630 48.44147 33082 ft 546 kts 92°
2026-05-07 15:37 40.59881 48.54143 33078 ft 546 kts 92°
2026-05-07 15:38 40.60123 48.64148 33090 ft 547 kts 92°
2026-05-07 15:38 40.60357 48.74137 33091 ft 547 kts 92°
2026-05-07 15:39 40.60580 48.84156 33091 ft 548 kts 92°
2026-05-07 15:39 40.60797 48.94194 33077 ft 548 kts 92°
2026-05-07 15:40 40.61003 49.04159 33090 ft 549 kts 93°
2026-05-07 15:40 40.61203 49.14232 33090 ft 549 kts 93°
2026-05-07 15:41 40.61452 49.24291 33091 ft 550 kts 90°
2026-05-07 15:41 40.62051 49.34356 33086 ft 551 kts 89°
2026-05-07 15:42 40.62715 49.44369 33083 ft 552 kts 89°
2026-05-07 15:42 40.63316 49.54450 33084 ft 551 kts 90°
2026-05-07 15:43 40.63867 49.64508 33085 ft 552 kts 90°
2026-05-07 15:43 40.64406 49.74617 33082 ft 552 kts 90°
2026-05-07 15:44 40.64937 49.84633 33082 ft 551 kts 90°
2026-05-07 15:44 40.65467 49.94729 33080 ft 552 kts 90°
2026-05-07 15:45 40.65985 50.04772 33079 ft 552 kts 90°
2026-05-07 15:45 40.66497 50.14888 33079 ft 552 kts 90°
2026-05-07 15:46 40.67244 50.29963 33076 ft 552 kts 90°
2026-05-07 15:47 40.67732 50.40044 33089 ft 552 kts 90°
2026-05-07 15:47 40.68214 50.50135 33084 ft 552 kts 90°
2026-05-07 15:48 40.68690 50.60254 33089 ft 552 kts 90°
2026-05-07 15:48 40.69154 50.70325 33097 ft 552 kts 90°
2026-05-07 15:49 40.69608 50.80403 33099 ft 552 kts 90°
2026-05-07 15:49 40.70055 50.90512 33098 ft 553 kts 90°
2026-05-07 15:50 40.70494 51.00639 33102 ft 553 kts 90°
2026-05-07 15:50 40.70924 51.10782 33106 ft 553 kts 90°
2026-05-07 15:51 40.71346 51.20896 33106 ft 553 kts 91°
2026-05-07 15:51 40.71756 51.30972 33104 ft 554 kts 91°
2026-05-07 15:52 40.72158 51.41084 33109 ft 554 kts 91°
2026-05-07 15:52 40.72714 51.51227 33106 ft 556 kts 85°
2026-05-07 15:53 40.74264 51.61288 33110 ft 558 kts 79°
2026-05-07 15:53 40.75988 51.71234 33112 ft 559 kts 79°
2026-05-07 15:54 40.77668 51.81252 33106 ft 558 kts 80°
2026-05-07 15:54 40.79294 51.91266 33108 ft 558 kts 80°
2026-05-07 15:55 40.80899 52.01251 33111 ft 558 kts 80°
2026-05-07 15:55 40.82511 52.11312 33115 ft 558 kts 80°
2026-05-07 15:56 40.83843 52.19649 33115 ft 558 kts 80°
2026-05-07 15:56 40.85696 52.31319 33103 ft 558 kts 80°
2026-05-07 15:57 40.87016 52.39682 33120 ft 559 kts 80°
2026-05-07 15:57 40.87809 52.44736 33280 ft 562 kts 80°
2026-05-07 15:57 40.88601 52.49791 33682 ft 561 kts 80°
2026-05-07 15:57 40.89389 52.54829 34156 ft 558 kts 80°
2026-05-07 15:58 40.90136 52.59858 34560 ft 555 kts 83°
2026-05-07 15:58 40.90610 52.64895 34923 ft 550 kts 89°
2026-05-07 15:58 40.90836 52.69948 35140 ft 550 kts 90°
2026-05-07 15:59 40.91186 52.79995 35101 ft 549 kts 91°
2026-05-07 15:59 40.91576 52.90078 35106 ft 549 kts 90°
2026-05-07 16:00 40.92005 53.00171 35113 ft 549 kts 90°
2026-05-07 16:00 40.92422 53.10191 35106 ft 549 kts 90°
2026-05-07 16:01 40.92821 53.20267 35097 ft 548 kts 90°
2026-05-07 16:01 40.93199 53.30351 35105 ft 548 kts 90°
2026-05-07 16:02 40.93567 53.40421 35100 ft 548 kts 90°
2026-05-07 16:02 40.93928 53.50508 35104 ft 548 kts 91°
2026-05-07 16:03 40.94279 53.60519 35097 ft 548 kts 91°
2026-05-07 16:03 40.94625 53.70643 35102 ft 548 kts 91°
2026-05-07 16:04 40.94959 53.80672 35098 ft 548 kts 91°
2026-05-07 16:04 40.95286 53.90752 35099 ft 548 kts 91°
2026-05-07 16:05 40.95604 54.00806 35093 ft 547 kts 91°
2026-05-07 16:05 40.95913 54.10882 35095 ft 547 kts 91°
2026-05-07 16:06 40.96211 54.20900 35095 ft 547 kts 91°
2026-05-07 16:06 40.96503 54.30983 35101 ft 547 kts 91°
2026-05-07 16:07 40.96786 54.41062 35095 ft 547 kts 91°
2026-05-07 16:07 40.97059 54.51099 35088 ft 546 kts 91°
2026-05-07 16:08 40.97321 54.61086 35096 ft 546 kts 91°
2026-05-07 16:08 40.97577 54.71131 35093 ft 546 kts 91°
2026-05-07 16:09 40.97823 54.81178 35091 ft 546 kts 91°
2026-05-07 16:09 40.98062 54.91220 35090 ft 546 kts 91°
2026-05-07 16:10 40.98287 55.01262 35083 ft 545 kts 92°
2026-05-07 16:10 40.98501 55.11299 35085 ft 545 kts 92°
2026-05-07 16:11 40.98705 55.21255 35080 ft 545 kts 92°
2026-05-07 16:11 40.98903 55.31286 35082 ft 545 kts 92°
2026-05-07 16:12 40.99091 55.41328 35072 ft 544 kts 92°
2026-05-07 16:12 40.99270 55.51340 35068 ft 544 kts 92°
2026-05-07 16:13 40.99441 55.61345 35072 ft 544 kts 92°
2026-05-07 16:13 40.99603 55.71374 35063 ft 544 kts 92°
2026-05-07 16:14 40.99758 55.81338 35062 ft 544 kts 92°
2026-05-07 16:14 40.99920 55.91328 35060 ft 544 kts 92°
2026-05-07 16:15 41.00077 56.01349 35056 ft 543 kts 92°
2026-05-07 16:15 41.00222 56.11349 35056 ft 543 kts 92°
2026-05-07 16:16 41.00356 56.21296 35049 ft 543 kts 92°
2026-05-07 16:16 41.00482 56.31326 35047 ft 543 kts 92°
2026-05-07 16:17 41.00600 56.41343 35052 ft 544 kts 92°
2026-05-07 16:17 41.00796 56.51326 35052 ft 545 kts 88°
2026-05-07 16:18 41.01855 56.61291 35061 ft 547 kts 83°
2026-05-07 16:18 41.03113 56.71165 35046 ft 547 kts 82°
2026-05-07 16:19 41.04338 56.81101 35037 ft 546 kts 83°
2026-05-07 16:19 41.05513 56.91058 35042 ft 545 kts 83°
2026-05-07 16:20 41.06660 57.00944 35044 ft 546 kts 83°
2026-05-07 16:20 41.07806 57.10884 35038 ft 546 kts 83°
2026-05-07 16:21 41.08948 57.20833 35039 ft 545 kts 83°
2026-05-07 16:21 41.10084 57.30790 35038 ft 545 kts 83°
2026-05-07 16:22 41.11207 57.40725 35038 ft 544 kts 83°
2026-05-07 16:22 41.12321 57.50656 35039 ft 544 kts 83°
2026-05-07 16:23 41.13425 57.60583 35038 ft 544 kts 83°
2026-05-07 16:23 41.14521 57.70516 35039 ft 544 kts 83°
2026-05-07 16:24 41.15601 57.80390 35038 ft 544 kts 84°
2026-05-07 16:24 41.16680 57.90332 35051 ft 543 kts 84°
2026-05-07 16:25 41.17748 58.00264 35032 ft 543 kts 84°
2026-05-07 16:25 41.18809 58.10192 35046 ft 543 kts 84°
2026-05-07 16:26 41.19852 58.20049 35035 ft 543 kts 84°
2026-05-07 16:26 41.20891 58.29971 35031 ft 542 kts 84°
2026-05-07 16:27 41.21917 58.39856 35023 ft 540 kts 84°
2026-05-07 16:27 41.22933 58.49724 35022 ft 538 kts 84°
2026-05-07 16:28 41.23938 58.59581 35029 ft 538 kts 84°
2026-05-07 16:28 41.24935 58.69441 35029 ft 538 kts 84°
2026-05-07 16:29 41.25924 58.79305 35025 ft 538 kts 84°
2026-05-07 16:29 41.26902 58.89150 35027 ft 537 kts 84°
2026-05-07 16:30 41.27871 58.98983 35016 ft 536 kts 84°
2026-05-07 16:30 41.28831 59.08822 35019 ft 536 kts 84°
2026-05-07 16:31 41.29776 59.18604 35012 ft 536 kts 84°
2026-05-07 16:31 41.30720 59.28449 35013 ft 536 kts 84°
2026-05-07 16:32 41.31653 59.38280 35013 ft 535 kts 84°
2026-05-07 16:32 41.32577 59.48105 35007 ft 535 kts 84°
2026-05-07 16:33 41.33491 59.57914 35004 ft 534 kts 84°
2026-05-07 16:33 41.34595 59.67682 35007 ft 535 kts 78°
2026-05-07 16:34 41.36741 59.77112 35007 ft 535 kts 71°
2026-05-07 16:34 41.39133 59.86501 34994 ft 535 kts 72°
2026-05-07 16:35 41.41465 59.95931 34991 ft 534 kts 72°
2026-05-07 16:35 41.43729 60.05289 34989 ft 534 kts 72°
2026-05-07 16:36 41.46002 60.14718 34986 ft 533 kts 72°
2026-05-07 16:36 41.48262 60.24133 34978 ft 533 kts 73°
2026-05-07 16:37 41.50479 60.33575 34975 ft 532 kts 73°
2026-05-07 16:37 41.52668 60.42964 34973 ft 532 kts 73°
2026-05-07 16:38 41.54867 60.52407 34965 ft 531 kts 73°
2026-05-07 16:38 41.57056 60.61837 34968 ft 531 kts 73°
2026-05-07 16:39 41.59302 60.71220 34968 ft 531 kts 71°
2026-05-07 16:39 41.61774 60.80468 34964 ft 530 kts 70°
2026-05-07 16:40 41.64284 60.89783 34965 ft 530 kts 71°
2026-05-07 16:40 41.66719 60.99026 34959 ft 530 kts 71°
2026-05-07 16:41 41.69145 61.08366 34953 ft 531 kts 71°
2026-05-07 16:41 41.71563 61.17713 34947 ft 531 kts 71°
2026-05-07 16:42 41.73979 61.27074 34951 ft 531 kts 71°
2026-05-07 16:42 41.76387 61.36438 34941 ft 532 kts 71°
2026-05-07 16:43 41.78789 61.45815 34939 ft 532 kts 71°
2026-05-07 16:43 41.81167 61.55136 34934 ft 532 kts 71°
2026-05-07 16:44 41.83558 61.64548 34930 ft 532 kts 71°
2026-05-07 16:44 41.85938 61.73946 34933 ft 531 kts 71°
2026-05-07 16:45 41.88286 61.83288 34927 ft 531 kts 72°
2026-05-07 16:45 41.90631 61.92697 34925 ft 531 kts 72°
2026-05-07 16:46 41.92967 62.02103 34920 ft 530 kts 72°
2026-05-07 16:46 41.94904 62.09922 34915 ft 530 kts 72°
2026-05-07 16:47 41.97610 62.20863 34926 ft 529 kts 72°
2026-05-07 16:47 41.99540 62.28698 34922 ft 529 kts 72°
2026-05-07 16:48 42.02213 62.39606 34911 ft 528 kts 72°
2026-05-07 16:48 42.04120 62.47419 34909 ft 528 kts 72°
2026-05-07 16:49 42.06399 62.56794 34897 ft 527 kts 72°
2026-05-07 16:49 42.08671 62.66166 34895 ft 526 kts 72°
2026-05-07 16:50 42.10935 62.75514 34893 ft 525 kts 72°
2026-05-07 16:50 42.13191 62.84882 34886 ft 524 kts 73°
2026-05-07 16:51 42.15429 62.94239 34887 ft 524 kts 73°
2026-05-07 16:51 42.17650 63.03542 34881 ft 523 kts 73°
2026-05-07 16:52 42.19892 63.12898 34876 ft 523 kts 73°
2026-05-07 16:52 42.22123 63.22234 34874 ft 522 kts 73°
2026-05-07 16:53 42.24341 63.31571 34875 ft 521 kts 73°
2026-05-07 16:53 42.26533 63.40844 34874 ft 520 kts 73°
2026-05-07 16:54 42.28714 63.50112 34875 ft 519 kts 73°
2026-05-07 16:54 42.30893 63.59406 34874 ft 518 kts 73°
2026-05-07 16:55 42.33069 63.68724 34873 ft 517 kts 74°
2026-05-07 16:55 42.35222 63.77984 34875 ft 517 kts 74°
2026-05-07 16:56 42.37370 63.87266 34874 ft 516 kts 74°
2026-05-07 16:56 42.40555 64.01098 34871 ft 515 kts 74°
2026-05-07 16:57 42.42636 64.10426 34871 ft 515 kts 75°
2026-05-07 16:57 42.44681 64.19691 34875 ft 515 kts 75°
2026-05-07 16:58 42.46752 64.28987 34870 ft 516 kts 75°
2026-05-07 16:58 42.48849 64.38278 34867 ft 516 kts 75°
2026-05-07 16:59 42.50943 64.47592 34877 ft 516 kts 75°
2026-05-07 16:59 42.53015 64.56872 34874 ft 517 kts 75°
2026-05-07 17:00 42.55089 64.66218 34877 ft 518 kts 75°
2026-05-07 17:00 42.57154 64.75571 34878 ft 518 kts 75°
2026-05-07 17:01 42.59216 64.84945 34874 ft 518 kts 75°
2026-05-07 17:01 42.61272 64.94330 34876 ft 518 kts 75°
2026-05-07 17:02 42.63319 65.03718 34874 ft 518 kts 75°
2026-05-07 17:02 42.65360 65.13118 34871 ft 518 kts 75°
2026-05-07 17:03 42.67378 65.22455 34876 ft 517 kts 75°
2026-05-07 17:03 42.69400 65.31855 34885 ft 516 kts 75°
2026-05-07 17:04 42.71393 65.41158 34878 ft 515 kts 75°
2026-05-07 17:04 42.73385 65.50500 34881 ft 514 kts 75°
2026-05-07 17:05 42.75365 65.59828 34880 ft 514 kts 75°
2026-05-07 17:05 42.77341 65.69181 34883 ft 514 kts 75°
2026-05-07 17:06 42.79309 65.78523 34886 ft 514 kts 75°
2026-05-07 17:06 42.81294 65.87888 34886 ft 515 kts 75°
2026-05-07 17:07 42.83278 65.97270 34888 ft 516 kts 75°
2026-05-07 17:07 42.85245 66.06630 34891 ft 517 kts 75°
2026-05-07 17:08 42.87195 66.16057 34896 ft 517 kts 76°
2026-05-07 17:08 42.89101 66.25502 34897 ft 516 kts 76°
2026-05-07 17:09 42.90998 66.34954 34900 ft 516 kts 76°
2026-05-07 17:09 42.92890 66.44388 34904 ft 515 kts 76°
2026-05-07 17:10 42.94774 66.53825 34908 ft 515 kts 76°
2026-05-07 17:10 42.96645 66.63200 34909 ft 515 kts 76°
2026-05-07 17:11 42.98558 66.72621 34908 ft 515 kts 76°
2026-05-07 17:11 43.00456 66.82045 34909 ft 514 kts 76°
2026-05-07 17:12 43.02327 66.91487 34907 ft 515 kts 76°
2026-05-07 17:12 43.04189 67.00943 34914 ft 516 kts 76°
2026-05-07 17:13 43.06049 67.10420 34915 ft 516 kts 76°
2026-05-07 17:13 43.07904 67.19916 34914 ft 517 kts 76°
2026-05-07 17:14 43.09750 67.29412 34920 ft 517 kts 76°
2026-05-07 17:14 43.11588 67.38912 34923 ft 516 kts 76°
2026-05-07 17:15 43.13416 67.48407 34926 ft 516 kts 76°
2026-05-07 17:15 43.15224 67.57866 34930 ft 515 kts 76°
2026-05-07 17:16 43.17030 67.67373 34935 ft 515 kts 76°
2026-05-07 17:16 43.18827 67.76875 34938 ft 515 kts 76°
2026-05-07 17:17 43.20624 67.86387 34937 ft 515 kts 76°
2026-05-07 17:17 43.22417 67.95894 34936 ft 515 kts 76°
2026-05-07 17:18 43.24204 68.05416 34940 ft 515 kts 76°
2026-05-07 17:18 43.25976 68.14920 34952 ft 516 kts 76°
2026-05-07 17:19 43.27746 68.24468 34959 ft 516 kts 76°
2026-05-07 17:19 43.29510 68.34019 34965 ft 516 kts 76°
2026-05-07 17:20 43.30920 68.43638 34971 ft 516 kts 81°
2026-05-07 17:20 43.32049 68.53371 34969 ft 516 kts 81°
2026-05-07 17:21 43.33164 68.63112 34965 ft 515 kts 83°
2026-05-07 17:21 43.33966 68.72858 34969 ft 515 kts 84°
2026-05-07 17:22 43.34728 68.82642 34977 ft 515 kts 84°
2026-05-07 17:22 43.35536 68.92419 34987 ft 515 kts 83°
2026-05-07 17:23 43.36349 69.02140 34998 ft 514 kts 83°
2026-05-07 17:23 43.37155 69.11909 35004 ft 514 kts 84°
2026-05-07 17:24 43.37962 69.21694 34999 ft 514 kts 83°
2026-05-07 17:24 43.38810 69.31439 35004 ft 514 kts 83°
2026-05-07 17:25 43.39658 69.41210 35005 ft 514 kts 83°
2026-05-07 17:25 43.40483 69.50914 35014 ft 514 kts 83°
2026-05-07 17:26 43.41301 69.60679 35017 ft 514 kts 83°
2026-05-07 17:26 43.42112 69.70460 35017 ft 514 kts 83°
2026-05-07 17:27 43.42923 69.80215 35016 ft 514 kts 83°
2026-05-07 17:27 43.43758 69.89961 35021 ft 514 kts 83°
2026-05-07 17:28 43.44593 69.99758 35010 ft 514 kts 83°
2026-05-07 17:28 43.45411 70.09521 35009 ft 513 kts 83°
2026-05-07 17:29 43.46218 70.19288 35000 ft 513 kts 83°
2026-05-07 17:29 43.47011 70.28984 35000 ft 513 kts 83°
2026-05-07 17:30 43.47800 70.38741 34996 ft 512 kts 83°
2026-05-07 17:30 43.48581 70.48501 34991 ft 512 kts 83°
2026-05-07 17:31 43.49352 70.58236 34991 ft 511 kts 83°
2026-05-07 17:31 43.50113 70.67964 34987 ft 511 kts 83°
2026-05-07 17:32 43.50867 70.77705 34987 ft 510 kts 83°
2026-05-07 17:32 43.51487 70.85782 34985 ft 510 kts 83°
2026-05-07 17:33 43.52339 70.97092 34986 ft 510 kts 83°
2026-05-07 17:33 43.53059 71.06820 34985 ft 509 kts 83°
2026-05-07 17:34 43.53770 71.16543 34984 ft 509 kts 83°
2026-05-07 17:34 43.54471 71.26248 34984 ft 509 kts 83°
2026-05-07 17:35 43.55160 71.35892 34984 ft 509 kts 83°
2026-05-07 17:35 43.55846 71.45596 34982 ft 508 kts 83°
2026-05-07 17:36 43.56523 71.55301 34972 ft 508 kts 83°
2026-05-07 17:36 43.57191 71.65009 34977 ft 508 kts 83°
2026-05-07 17:37 43.57740 71.73069 34976 ft 508 kts 83°
2026-05-07 17:37 43.58393 71.82767 34976 ft 508 kts 84°
2026-05-07 17:38 43.59037 71.92468 34976 ft 507 kts 84°
2026-05-07 17:38 43.59776 72.03737 34978 ft 508 kts 84°
2026-05-07 17:39 43.60301 72.11862 34977 ft 508 kts 84°
2026-05-07 17:39 43.60917 72.21507 34974 ft 508 kts 84°
2026-05-07 17:40 43.61530 72.31230 34977 ft 508 kts 84°
2026-05-07 17:40 43.62134 72.40951 34978 ft 508 kts 84°
2026-05-07 17:41 43.62730 72.50671 34978 ft 508 kts 84°
2026-05-07 17:41 43.63317 72.60383 34976 ft 508 kts 84°
2026-05-07 17:42 43.63896 72.70101 34980 ft 508 kts 84°
2026-05-07 17:42 43.64467 72.79827 34978 ft 508 kts 84°
2026-05-07 17:43 43.65028 72.89539 34977 ft 507 kts 84°
2026-05-07 17:43 43.65578 72.99183 34977 ft 507 kts 84°
2026-05-07 17:44 43.66122 73.08875 34973 ft 506 kts 84°
2026-05-07 17:44 43.66658 73.18576 34974 ft 506 kts 84°
2026-05-07 17:45 43.67185 73.28255 34970 ft 505 kts 84°
2026-05-07 17:45 43.67703 73.37917 34970 ft 504 kts 84°
2026-05-07 17:46 43.68212 73.47577 34977 ft 504 kts 84°
2026-05-07 17:46 43.68712 73.57229 34978 ft 503 kts 84°
2026-05-07 17:47 43.69204 73.66877 34978 ft 503 kts 84°
2026-05-07 17:47 43.69608 73.76537 34988 ft 504 kts 89°
2026-05-07 17:48 43.69356 73.86224 34996 ft 505 kts 91°
2026-05-07 17:48 43.69025 73.95916 34996 ft 504 kts 91°
2026-05-07 17:49 43.68734 74.05539 35002 ft 504 kts 91°
2026-05-07 17:49 43.68447 74.15222 35015 ft 504 kts 91°
2026-05-07 17:50 43.68153 74.24896 35017 ft 504 kts 90°
2026-05-07 17:50 43.67862 74.34574 35032 ft 504 kts 90°
2026-05-07 17:51 43.67564 74.44239 35037 ft 503 kts 90°
2026-05-07 17:51 43.67256 74.53901 35043 ft 503 kts 90°
2026-05-07 17:52 43.66938 74.63548 35048 ft 502 kts 90°
2026-05-07 17:52 43.66613 74.73183 35049 ft 502 kts 91°
2026-05-07 17:53 43.66279 74.82820 35052 ft 502 kts 91°
2026-05-07 17:53 43.65940 74.92390 35052 ft 502 kts 91°
2026-05-07 17:54 43.65591 75.02020 35053 ft 502 kts 91°
2026-05-07 17:54 43.65233 75.11660 35047 ft 502 kts 91°
2026-05-07 17:55 43.64866 75.21300 35034 ft 502 kts 91°
2026-05-07 17:55 43.64491 75.30934 35038 ft 503 kts 91°
2026-05-07 17:56 43.64109 75.40578 35037 ft 503 kts 91°
2026-05-07 17:56 43.63718 75.50235 35033 ft 504 kts 91°
2026-05-07 17:57 43.63385 75.58274 35027 ft 504 kts 91°
2026-05-07 17:57 43.62908 75.69485 35024 ft 503 kts 91°
2026-05-07 17:58 43.62487 75.79134 35024 ft 503 kts 91°
2026-05-07 17:58 43.62059 75.88762 35018 ft 503 kts 91°
2026-05-07 17:59 43.61621 75.98407 35015 ft 503 kts 91°
2026-05-07 17:59 43.61175 76.08050 35015 ft 503 kts 92°
2026-05-07 18:00 43.60721 76.17692 35014 ft 504 kts 92°
2026-05-07 18:00 43.60262 76.27287 35018 ft 504 kts 92°
2026-05-07 18:01 43.59929 76.36932 35013 ft 503 kts 89°
2026-05-07 18:01 43.59924 76.46581 35013 ft 502 kts 88°
2026-05-07 18:02 43.59916 76.61039 35010 ft 502 kts 88°
2026-05-07 18:03 43.59865 76.70668 35012 ft 502 kts 88°
2026-05-07 18:03 43.59808 76.80291 35019 ft 501 kts 88°
2026-05-07 18:04 43.59695 76.89896 35024 ft 501 kts 89°
2026-05-07 18:04 43.59561 76.99494 35024 ft 500 kts 89°
2026-05-07 18:05 43.59473 77.09074 35027 ft 499 kts 88°
2026-05-07 18:05 43.59357 77.18659 35024 ft 499 kts 90°
2026-05-07 18:06 43.59034 77.28225 35022 ft 500 kts 91°
2026-05-07 18:06 43.58667 77.37798 35019 ft 499 kts 91°
2026-05-07 18:07 43.58328 77.47359 35015 ft 499 kts 91°
2026-05-07 18:07 43.58057 77.56867 35015 ft 499 kts 90°
2026-05-07 18:08 43.57971 77.66451 35017 ft 499 kts 89°
2026-05-07 18:08 43.57879 77.76033 35019 ft 499 kts 90°
2026-05-07 18:09 43.57744 77.85605 35020 ft 500 kts 90°
2026-05-07 18:09 43.57591 77.95205 35019 ft 499 kts 90°
2026-05-07 18:10 43.57435 78.04770 35018 ft 498 kts 91°
2026-05-07 18:10 43.57278 78.14316 35020 ft 498 kts 91°
2026-05-07 18:11 43.57120 78.23786 35020 ft 497 kts 91°
2026-05-07 18:11 43.56952 78.33320 35019 ft 496 kts 91°
2026-05-07 18:12 43.56774 78.42839 35015 ft 496 kts 91°
2026-05-07 18:12 43.56588 78.52335 35015 ft 496 kts 91°
2026-05-07 18:13 43.56393 78.61849 35014 ft 496 kts 91°
2026-05-07 18:13 43.56191 78.71350 35019 ft 495 kts 91°
2026-05-07 18:14 43.55982 78.80831 35011 ft 495 kts 91°
2026-05-07 18:14 43.55765 78.90311 35019 ft 495 kts 91°
2026-05-07 18:15 43.55542 78.99729 35014 ft 494 kts 91°
2026-05-07 18:15 43.55309 79.09200 35008 ft 494 kts 91°
2026-05-07 18:16 43.55068 79.18676 35011 ft 494 kts 91°
2026-05-07 18:16 43.54821 79.28136 35010 ft 494 kts 91°
2026-05-07 18:17 43.54568 79.37595 35002 ft 493 kts 91°
2026-05-07 18:17 43.54305 79.47042 35011 ft 492 kts 91°
2026-05-07 18:18 43.54036 79.56421 35009 ft 492 kts 91°
2026-05-07 18:18 43.53758 79.65836 35014 ft 492 kts 91°
2026-05-07 18:19 43.53472 79.75257 35012 ft 491 kts 91°
2026-05-07 18:19 43.53180 79.84656 35021 ft 491 kts 91°
2026-05-07 18:20 43.52877 79.94065 35023 ft 491 kts 91°
2026-05-07 18:20 43.52568 80.03390 35026 ft 490 kts 91°
2026-05-07 18:21 43.52249 80.12775 35030 ft 491 kts 91°
2026-05-07 18:21 43.51921 80.22182 35038 ft 491 kts 91°
2026-05-07 18:22 43.51586 80.31581 35044 ft 491 kts 91°
2026-05-07 18:22 43.51242 80.40986 35047 ft 491 kts 91°
2026-05-07 18:23 43.50892 80.50371 35049 ft 490 kts 91°
2026-05-07 18:23 43.50534 80.59750 35055 ft 489 kts 91°
2026-05-07 18:24 43.50169 80.69101 35064 ft 489 kts 92°
2026-05-07 18:24 43.49854 80.78452 35068 ft 488 kts 90°
2026-05-07 18:25 43.49745 80.87736 35073 ft 487 kts 89°
2026-05-07 18:25 43.49650 80.97074 35072 ft 487 kts 89°
2026-05-07 18:26 43.49541 81.04815 35076 ft 486 kts 90°
2026-05-07 18:26 43.49385 81.14119 35073 ft 486 kts 90°
2026-05-07 18:27 43.49220 81.23439 35065 ft 485 kts 90°
2026-05-07 18:27 43.49046 81.32724 35075 ft 485 kts 90°
2026-05-07 18:28 43.48871 81.42015 35074 ft 485 kts 90°
2026-05-07 18:28 43.48686 81.51245 35060 ft 485 kts 90°
2026-05-07 18:29 43.48492 81.60533 35072 ft 485 kts 90°
2026-05-07 18:29 43.48293 81.69820 35062 ft 485 kts 90°
2026-05-07 18:30 43.48081 81.79096 35067 ft 484 kts 90°
2026-05-07 18:30 43.47856 81.88367 35064 ft 485 kts 90°
2026-05-07 18:31 43.47624 81.97645 35053 ft 484 kts 90°
2026-05-07 18:31 43.47384 82.06921 35056 ft 484 kts 90°
2026-05-07 18:32 43.47137 82.16213 35248 ft 487 kts 90°
2026-05-07 18:32 43.47011 82.20862 35624 ft 486 kts 90°
2026-05-07 18:32 43.46883 82.25491 36025 ft 483 kts 90°
2026-05-07 18:32 43.46753 82.30118 36423 ft 481 kts 90°
2026-05-07 18:33 43.46622 82.34711 36776 ft 480 kts 90°
2026-05-07 18:33 43.46491 82.39259 36995 ft 481 kts 90°
2026-05-07 18:33 43.46357 82.43870 37024 ft 482 kts 90°
2026-05-07 18:34 43.46082 82.53104 37064 ft 482 kts 90°
2026-05-07 18:34 43.45799 82.62308 37075 ft 480 kts 90°
2026-05-07 18:35 43.45512 82.71445 37075 ft 480 kts 90°
2026-05-07 18:35 43.45216 82.80630 37078 ft 480 kts 90°
2026-05-07 18:36 43.44912 82.89802 37080 ft 479 kts 90°
2026-05-07 18:36 43.44602 82.98960 37085 ft 479 kts 91°
2026-05-07 18:37 43.44284 83.08121 37093 ft 479 kts 91°
2026-05-07 18:37 43.43958 83.17287 37099 ft 479 kts 91°
2026-05-07 18:38 43.43625 83.26440 37105 ft 479 kts 91°
2026-05-07 18:38 43.43289 83.35524 37113 ft 478 kts 91°
2026-05-07 18:39 43.42697 83.44646 37127 ft 479 kts 95°
2026-05-07 18:39 43.41908 83.53749 37129 ft 479 kts 95°
2026-05-07 18:40 43.41110 83.62859 37138 ft 479 kts 95°
2026-05-07 18:40 43.40326 83.71952 37145 ft 479 kts 95°
2026-05-07 18:41 43.39544 83.81041 37148 ft 478 kts 95°
2026-05-07 18:41 43.38760 83.90069 37158 ft 478 kts 95°
2026-05-07 18:42 43.37964 83.99139 37166 ft 478 kts 95°
2026-05-07 18:42 43.37160 84.08204 37166 ft 478 kts 95°
2026-05-07 18:43 43.36349 84.17265 37180 ft 478 kts 95°
2026-05-07 18:43 43.35531 84.26319 37180 ft 477 kts 95°
2026-05-07 18:44 43.34707 84.35377 37194 ft 477 kts 95°
2026-05-07 18:44 43.33864 84.44428 37206 ft 477 kts 95°
2026-05-07 18:45 43.33002 84.53467 37210 ft 478 kts 95°
2026-05-07 18:45 43.32136 84.62460 37215 ft 477 kts 95°
2026-05-07 18:46 43.31261 84.71490 37218 ft 477 kts 95°
2026-05-07 18:46 43.30380 84.80519 37234 ft 477 kts 95°
2026-05-07 18:47 43.29491 84.89546 37235 ft 477 kts 95°
2026-05-07 18:47 43.28594 84.98581 37244 ft 477 kts 96°
2026-05-07 18:48 43.27695 85.07597 37253 ft 477 kts 96°
2026-05-07 18:48 43.26785 85.16604 37250 ft 477 kts 96°
2026-05-07 18:49 43.25866 85.25626 37251 ft 477 kts 96°
2026-05-07 18:49 43.24943 85.34645 37235 ft 477 kts 96°
2026-05-07 18:50 43.24012 85.43648 37252 ft 477 kts 96°
2026-05-07 18:50 43.23075 85.52642 37227 ft 476 kts 96°
2026-05-07 18:51 43.22138 85.61571 37237 ft 477 kts 96°
2026-05-07 18:51 43.21185 85.70579 37244 ft 477 kts 96°
2026-05-07 18:52 43.20223 85.79594 37243 ft 478 kts 96°
2026-05-07 18:52 43.19255 85.88605 37244 ft 477 kts 96°
2026-05-07 18:53 43.19330 85.97554 37257 ft 470 kts 73°
2026-05-07 18:53 43.20407 86.01768 37243 ft 468 kts 62°
2026-05-07 18:53 43.22079 86.05553 37253 ft 464 kts 53°
2026-05-07 18:54 43.25800 86.12822 37241 ft 466 kts 53°
2026-05-07 18:54 43.29423 86.20205 37224 ft 466 kts 54°
2026-05-07 18:55 43.33006 86.27610 37229 ft 466 kts 54°
2026-05-07 18:55 43.36593 86.35013 37222 ft 465 kts 54°
2026-05-07 18:56 43.40177 86.42427 37197 ft 466 kts 54°
2026-05-07 18:56 43.43743 86.49801 37187 ft 466 kts 54°
2026-05-07 18:57 43.47347 86.57213 37169 ft 465 kts 54°
2026-05-07 18:57 43.50944 86.64639 37136 ft 465 kts 54°
2026-05-07 18:58 43.54531 86.72064 37123 ft 465 kts 54°
2026-05-07 18:58 43.58069 86.79473 37106 ft 466 kts 54°
2026-05-07 18:59 43.61616 86.86959 37093 ft 466 kts 54°
2026-05-07 18:59 43.65159 86.94448 37082 ft 466 kts 54°
2026-05-07 19:00 43.68703 87.01959 37062 ft 466 kts 54°
2026-05-07 19:00 43.72236 87.09460 37050 ft 465 kts 54°
2026-05-07 19:01 43.75760 87.16969 37041 ft 465 kts 54°
2026-05-07 19:01 43.79272 87.24500 37032 ft 466 kts 54°
2026-05-07 19:02 43.82778 87.32048 37022 ft 466 kts 54°
2026-05-07 19:02 43.86258 87.39561 37025 ft 466 kts 54°
2026-05-07 19:03 43.89762 87.47139 37025 ft 466 kts 54°
2026-05-07 19:03 43.93426 87.54541 37026 ft 465 kts 50°
2026-05-07 19:04 43.97364 87.61665 37012 ft 465 kts 50°
2026-05-07 19:04 44.01316 87.68817 37009 ft 466 kts 50°
2026-05-07 19:05 44.05207 87.75950 37005 ft 466 kts 50°
2026-05-07 19:05 44.09112 87.83152 36996 ft 467 kts 50°
2026-05-07 19:06 44.13025 87.90377 37002 ft 467 kts 50°
2026-05-07 19:06 44.16541 87.98000 36997 ft 471 kts 62°
2026-05-07 19:06 44.17796 88.02225 37003 ft 474 kts 68°
2026-05-07 19:07 44.19374 88.11167 37006 ft 477 kts 76°
2026-05-07 19:07 44.20662 88.20246 37007 ft 478 kts 76°
2026-05-07 19:08 44.21964 88.29341 36999 ft 478 kts 76°
2026-05-07 19:08 44.23295 88.38421 36994 ft 478 kts 75°
2026-05-07 19:09 44.24634 88.47505 36989 ft 478 kts 75°
2026-05-07 19:09 44.25959 88.56540 36991 ft 478 kts 76°
2026-05-07 19:10 44.27283 88.65635 36978 ft 479 kts 76°
2026-05-07 19:10 44.28601 88.74752 36972 ft 479 kts 76°
2026-05-07 19:11 44.29911 88.83870 36974 ft 479 kts 76°
2026-05-07 19:11 44.31216 88.93006 36969 ft 479 kts 76°
2026-05-07 19:12 44.32513 89.02140 36970 ft 479 kts 76°
2026-05-07 19:12 44.33585 89.09732 36968 ft 479 kts 76°
2026-05-07 19:13 44.34868 89.18872 36968 ft 480 kts 76°
2026-05-07 19:13 44.36144 89.28018 36969 ft 480 kts 76°
2026-05-07 19:14 44.37621 89.38680 36964 ft 480 kts 76°
2026-05-07 19:14 44.38676 89.46348 36970 ft 480 kts 76°
2026-05-07 19:15 44.39930 89.55509 36971 ft 480 kts 76°
2026-05-07 19:15 44.41079 89.64658 36962 ft 482 kts 82°
2026-05-07 19:16 44.40758 89.74065 36980 ft 488 kts 98°
2026-05-07 19:16 44.38927 89.83261 36979 ft 492 kts 105°
2026-05-07 19:17 44.36847 89.92384 36970 ft 492 kts 105°
2026-05-07 19:17 44.34795 90.01523 36968 ft 492 kts 105°
2026-05-07 19:18 44.32793 90.10607 36982 ft 493 kts 104°
2026-05-07 19:18 44.30781 90.19759 36979 ft 493 kts 104°
2026-05-07 19:19 44.28760 90.28906 36986 ft 493 kts 105°
2026-05-07 19:19 44.26729 90.38048 36990 ft 493 kts 105°
2026-05-07 19:20 44.24688 90.47189 36989 ft 494 kts 105°
2026-05-07 19:20 44.22639 90.56333 36998 ft 494 kts 105°
2026-05-07 19:21 44.20583 90.65463 37001 ft 493 kts 105°
2026-05-07 19:21 44.18535 90.74523 37010 ft 493 kts 105°
2026-05-07 19:22 44.16466 90.83633 37010 ft 493 kts 105°
2026-05-07 19:22 44.14389 90.92743 37004 ft 493 kts 105°
2026-05-07 19:23 44.12307 91.01840 37014 ft 494 kts 105°
2026-05-07 19:23 44.10223 91.10944 37017 ft 493 kts 105°
2026-05-07 19:24 44.08139 91.20049 37025 ft 493 kts 105°
2026-05-07 19:24 44.06044 91.29155 37028 ft 494 kts 105°
2026-05-07 19:25 44.03953 91.38202 37029 ft 494 kts 105°
2026-05-07 19:25 44.01835 91.47302 37034 ft 494 kts 105°
2026-05-07 19:26 43.99689 91.56380 37036 ft 494 kts 106°
2026-05-07 19:26 43.97532 91.65454 37038 ft 495 kts 106°
2026-05-07 19:27 43.95379 91.74482 37045 ft 495 kts 106°
2026-05-07 19:27 43.93210 91.83551 37043 ft 495 kts 106°
2026-05-07 19:28 43.91030 91.92629 37046 ft 495 kts 106°
2026-05-07 19:28 43.88860 92.01631 37046 ft 495 kts 106°
2026-05-07 19:29 43.86667 92.10690 37055 ft 496 kts 106°
2026-05-07 19:29 43.84466 92.19747 37050 ft 496 kts 106°
2026-05-07 19:30 43.82257 92.28802 37052 ft 496 kts 106°
2026-05-07 19:30 43.80039 92.37853 37057 ft 495 kts 106°
2026-05-07 19:31 43.77833 92.46824 37057 ft 495 kts 106°
2026-05-07 19:31 43.75603 92.55854 37065 ft 495 kts 106°
2026-05-07 19:32 43.73365 92.64880 37060 ft 496 kts 106°
2026-05-07 19:32 43.71129 92.73866 37072 ft 496 kts 107°
2026-05-07 19:33 43.68875 92.82886 37074 ft 496 kts 107°
2026-05-07 19:33 43.66629 92.91838 37079 ft 496 kts 107°
2026-05-07 19:34 43.64373 93.00831 37085 ft 496 kts 106°
2026-05-07 19:34 43.62202 93.09870 37083 ft 495 kts 105°
2026-05-07 19:35 43.60059 93.18921 37091 ft 496 kts 105°
2026-05-07 19:35 43.57899 93.27958 37089 ft 496 kts 106°
2026-05-07 19:36 43.55731 93.36943 37102 ft 496 kts 106°
2026-05-07 19:36 43.53541 93.45970 37099 ft 496 kts 106°
2026-05-07 19:37 43.51341 93.55005 37094 ft 497 kts 106°
2026-05-07 19:37 43.49146 93.63983 37094 ft 497 kts 106°
2026-05-07 19:38 43.46923 93.73042 37101 ft 497 kts 107°
2026-05-07 19:38 43.44709 93.82029 37094 ft 498 kts 107°
2026-05-07 19:39 43.42487 93.91015 37106 ft 498 kts 107°
2026-05-07 19:39 43.40237 94.00079 37096 ft 498 kts 107°
2026-05-07 19:40 43.37998 94.09064 37095 ft 498 kts 107°
2026-05-07 19:40 43.35756 94.18022 37097 ft 498 kts 107°
2026-05-07 19:41 43.33490 94.27045 37098 ft 498 kts 107°
2026-05-07 19:41 43.31217 94.36055 37085 ft 499 kts 107°
2026-05-07 19:42 43.28949 94.45013 37079 ft 499 kts 107°
2026-05-07 19:42 43.26664 94.54005 37076 ft 499 kts 107°
2026-05-07 19:43 43.24385 94.62938 37061 ft 499 kts 108°
2026-05-07 19:43 43.22079 94.71943 37051 ft 499 kts 108°
2026-05-07 19:44 43.19782 94.80887 37034 ft 499 kts 108°
2026-05-07 19:44 43.17462 94.89876 37018 ft 499 kts 108°
2026-05-07 19:45 43.15152 94.98796 37009 ft 499 kts 108°
2026-05-07 19:45 43.12142 95.07333 37004 ft 500 kts 126°
2026-05-07 19:46 43.07180 95.13971 36999 ft 499 kts 146°
2026-05-07 19:46 43.01398 95.19233 36993 ft 499 kts 147°
2026-05-07 19:47 42.95640 95.24430 36993 ft 498 kts 147°
2026-05-07 19:47 42.89877 95.29727 37004 ft 497 kts 147°
2026-05-07 19:48 42.84187 95.34998 37002 ft 497 kts 147°
2026-05-07 19:48 42.78467 95.40292 37003 ft 496 kts 147°
2026-05-07 19:49 42.72755 95.45560 37013 ft 496 kts 147°
2026-05-07 19:49 42.67065 95.50791 37012 ft 495 kts 147°
2026-05-07 19:50 42.61354 95.56030 37028 ft 495 kts 147°
2026-05-07 19:50 42.55645 95.61254 37015 ft 494 kts 147°
2026-05-07 19:51 42.49940 95.66462 37026 ft 493 kts 147°
2026-05-07 19:51 42.44272 95.71629 37030 ft 493 kts 147°
2026-05-07 19:52 42.41646 95.74598 37020 ft 494 kts 131°
2026-05-07 19:52 42.39727 95.78476 37040 ft 497 kts 115°
2026-05-07 19:52 42.38586 95.82892 37033 ft 499 kts 100°
2026-05-07 19:52 42.38289 95.87553 37038 ft 496 kts 90°
2026-05-07 19:53 42.38166 95.96910 37039 ft 500 kts 90°
2026-05-07 19:53 42.37997 96.06288 37027 ft 500 kts 91°
2026-05-07 19:54 42.37753 96.15719 37028 ft 499 kts 91°
2026-05-07 19:54 42.37476 96.25054 37041 ft 500 kts 92°
2026-05-07 19:55 42.37187 96.34508 37032 ft 501 kts 92°
2026-05-07 19:55 42.36897 96.43880 37038 ft 501 kts 92°
2026-05-07 19:56 42.36601 96.53269 37027 ft 501 kts 92°
2026-05-07 19:56 42.36295 96.62690 37030 ft 502 kts 92°
2026-05-07 19:57 42.35981 96.72128 37024 ft 502 kts 92°
2026-05-07 19:57 42.35659 96.81563 37020 ft 502 kts 92°
2026-05-07 19:58 42.35330 96.90969 37016 ft 503 kts 92°
2026-05-07 19:58 42.34989 97.00448 37014 ft 503 kts 92°
2026-05-07 19:59 42.34645 97.09859 37010 ft 503 kts 92°
2026-05-07 19:59 42.34292 97.19322 37009 ft 504 kts 92°
2026-05-07 20:00 42.33930 97.28786 37010 ft 504 kts 92°
2026-05-07 20:00 42.33562 97.38224 37006 ft 504 kts 92°
2026-05-07 20:01 42.33183 97.47706 37005 ft 505 kts 93°
2026-05-07 20:01 42.32795 97.57192 37003 ft 505 kts 93°
2026-05-07 20:02 42.32403 97.66614 37007 ft 505 kts 93°
2026-05-07 20:02 42.32000 97.76121 37005 ft 505 kts 93°
2026-05-07 20:03 42.31591 97.85603 37009 ft 506 kts 93°
2026-05-07 20:03 42.31174 97.95057 37009 ft 506 kts 93°
2026-05-07 20:04 42.30747 98.04567 37005 ft 506 kts 93°
2026-05-07 20:04 42.30313 98.14075 37005 ft 506 kts 93°
2026-05-07 20:05 42.29871 98.23519 37004 ft 507 kts 94°
2026-05-07 20:05 42.29420 98.33034 36999 ft 507 kts 94°
2026-05-07 20:06 42.29025 98.40951 36998 ft 508 kts 94°
2026-05-07 20:06 42.28447 98.52080 37004 ft 508 kts 94°
2026-05-07 20:07 42.27945 98.61583 36998 ft 509 kts 94°
2026-05-07 20:07 42.27523 98.69517 36989 ft 509 kts 94°
2026-05-07 20:08 42.26924 98.80606 36994 ft 509 kts 94°
2026-05-07 20:08 42.26487 98.88559 36994 ft 510 kts 94°
2026-05-07 20:09 42.25954 98.98122 36983 ft 510 kts 94°
2026-05-07 20:10 42.25145 99.12378 36980 ft 510 kts 94°
2026-05-07 20:10 42.24593 99.21919 36975 ft 510 kts 94°
2026-05-07 20:11 42.24031 99.31478 36975 ft 510 kts 94°
2026-05-07 20:11 42.23464 99.41026 36966 ft 510 kts 94°
2026-05-07 20:12 42.22892 99.50515 36964 ft 510 kts 95°
2026-05-07 20:12 42.22308 99.60069 36964 ft 510 kts 95°
2026-05-07 20:13 42.21719 99.69569 36967 ft 511 kts 95°
2026-05-07 20:13 42.21116 99.79144 36964 ft 511 kts 95°
2026-05-07 20:14 42.20510 99.88647 36962 ft 511 kts 95°
2026-05-07 20:14 42.19892 99.98221 36959 ft 511 kts 95°
2026-05-07 20:15 42.19273 100.07718 36961 ft 511 kts 95°
2026-05-07 20:15 42.18640 100.17283 36957 ft 511 kts 95°
2026-05-07 20:16 42.18001 100.26794 36953 ft 512 kts 95°
2026-05-07 20:16 42.17351 100.36361 36955 ft 512 kts 95°
2026-05-07 20:17 42.16694 100.45931 36951 ft 513 kts 95°
2026-05-07 20:17 42.16026 100.55523 36949 ft 513 kts 95°
2026-05-07 20:18 42.15350 100.65111 36951 ft 514 kts 95°
2026-05-07 20:18 42.14668 100.74660 36955 ft 514 kts 95°
2026-05-07 20:19 42.13974 100.84284 36956 ft 515 kts 95°
2026-05-07 20:19 42.13276 100.93835 36954 ft 515 kts 95°
2026-05-07 20:20 42.12405 101.03419 36957 ft 515 kts 101°
2026-05-07 20:20 42.10444 101.12679 36962 ft 514 kts 110°
2026-05-07 20:21 42.08025 101.21691 36952 ft 514 kts 111°
2026-05-07 20:21 42.05590 101.30770 36957 ft 514 kts 110°
2026-05-07 20:22 42.03193 101.39824 36957 ft 515 kts 110°
2026-05-07 20:22 42.00797 101.48902 36959 ft 515 kts 110°
2026-05-07 20:23 41.98402 101.57948 36958 ft 515 kts 110°
2026-05-07 20:23 41.95982 101.67039 36967 ft 516 kts 110°
2026-05-07 20:24 41.93565 101.76088 36963 ft 516 kts 110°
2026-05-07 20:24 41.91139 101.85136 36955 ft 517 kts 110°
2026-05-07 20:25 41.88690 101.94231 36968 ft 517 kts 110°
2026-05-07 20:25 41.86241 102.03294 36963 ft 517 kts 110°
2026-05-07 20:26 41.83798 102.12308 36970 ft 517 kts 110°
2026-05-07 20:26 41.81333 102.21370 36968 ft 517 kts 111°
2026-05-07 20:27 41.78856 102.30436 36970 ft 518 kts 111°
2026-05-07 20:27 41.76365 102.39521 36967 ft 518 kts 111°
2026-05-07 20:28 41.73881 102.48548 36979 ft 519 kts 111°
2026-05-07 20:28 41.71375 102.57623 36977 ft 519 kts 111°
2026-05-07 20:29 41.68876 102.66639 36975 ft 519 kts 111°
2026-05-07 20:29 41.66350 102.75722 36976 ft 520 kts 111°
2026-05-07 20:30 41.63821 102.84780 36970 ft 520 kts 111°
2026-05-07 20:30 41.61281 102.93841 36979 ft 520 kts 111°
2026-05-07 20:31 41.58748 103.02847 36978 ft 520 kts 111°
2026-05-07 20:31 41.56182 103.11915 36977 ft 521 kts 111°
2026-05-07 20:32 41.53610 103.20964 36982 ft 522 kts 111°
2026-05-07 20:32 41.51040 103.29977 36981 ft 522 kts 111°
2026-05-07 20:33 41.48441 103.39057 36986 ft 522 kts 111°
2026-05-07 20:33 41.45855 103.48062 36986 ft 522 kts 111°
2026-05-07 20:34 41.43249 103.57103 36983 ft 522 kts 111°
2026-05-07 20:34 41.40633 103.66148 36993 ft 523 kts 111°
2026-05-07 20:35 41.38011 103.75182 36991 ft 523 kts 112°
2026-05-07 20:35 41.35397 103.84157 36990 ft 523 kts 112°
2026-05-07 20:36 41.32754 103.93202 36988 ft 524 kts 112°
2026-05-07 20:36 41.30103 104.02240 36985 ft 525 kts 112°
2026-05-07 20:37 41.27443 104.11277 36990 ft 525 kts 112°
2026-05-07 20:37 41.24792 104.20254 36990 ft 525 kts 112°
2026-05-07 20:38 41.22106 104.29318 36994 ft 525 kts 112°
2026-05-07 20:38 41.19436 104.38294 36991 ft 526 kts 112°
2026-05-07 20:39 41.16746 104.47310 37000 ft 525 kts 112°
2026-05-07 20:39 41.14045 104.56328 36998 ft 526 kts 112°
2026-05-07 20:40 41.11333 104.65350 37009 ft 526 kts 112°
2026-05-07 20:40 41.08584 104.74311 37011 ft 527 kts 114°
2026-05-07 20:41 41.05586 104.83200 37017 ft 527 kts 116°
2026-05-07 20:41 41.02549 104.91989 37027 ft 528 kts 116°
2026-05-07 20:42 40.99518 105.00838 37035 ft 528 kts 115°
2026-05-07 20:42 40.96495 105.09722 37040 ft 529 kts 115°
2026-05-07 20:43 40.93462 105.18625 37043 ft 529 kts 115°
2026-05-07 20:43 40.90435 105.27477 37047 ft 529 kts 116°
2026-05-07 20:44 40.87401 105.36313 37052 ft 530 kts 116°
2026-05-07 20:44 40.84350 105.45169 37056 ft 530 kts 116°
2026-05-07 20:45 40.81286 105.54036 37059 ft 531 kts 116°
2026-05-07 20:45 40.78227 105.62861 37062 ft 531 kts 116°
2026-05-07 20:46 40.75144 105.71728 37066 ft 531 kts 116°
2026-05-07 20:46 40.72055 105.80587 37064 ft 531 kts 116°
2026-05-07 20:47 40.68961 105.89428 37070 ft 532 kts 116°
2026-05-07 20:47 40.65863 105.98255 37075 ft 532 kts 116°
2026-05-07 20:48 40.62736 106.07138 37069 ft 532 kts 116°
2026-05-07 20:48 40.59621 106.15959 37072 ft 533 kts 116°
2026-05-07 20:49 40.56494 106.24788 37068 ft 533 kts 116°
2026-05-07 20:49 40.53341 106.33662 37067 ft 534 kts 116°
2026-05-07 20:50 40.50196 106.42486 37072 ft 535 kts 116°
2026-05-07 20:50 40.47042 106.51306 37070 ft 536 kts 117°
2026-05-07 20:51 40.43857 106.60187 37072 ft 536 kts 117°
2026-05-07 20:51 40.40670 106.69044 37072 ft 537 kts 117°
2026-05-07 20:52 40.37495 106.77841 37071 ft 537 kts 117°
2026-05-07 20:52 40.34287 106.86702 37070 ft 537 kts 117°
2026-05-07 20:53 40.31896 106.95953 37082 ft 539 kts 98°
2026-05-07 20:53 40.31763 107.05727 37067 ft 536 kts 78°
2026-05-07 20:54 40.33048 107.15343 37070 ft 536 kts 76°
2026-05-07 20:54 40.34371 107.24957 37068 ft 535 kts 77°
2026-05-07 20:55 40.35597 107.34579 37071 ft 534 kts 78°
2026-05-07 20:55 40.36762 107.44127 37075 ft 534 kts 78°
2026-05-07 20:56 40.37927 107.53747 37072 ft 533 kts 78°
2026-05-07 20:56 40.39087 107.63351 37079 ft 533 kts 78°
2026-05-07 20:57 40.40242 107.72959 37080 ft 533 kts 78°
2026-05-07 20:57 40.41387 107.82572 37077 ft 532 kts 78°
2026-05-07 20:58 40.42522 107.92164 37074 ft 532 kts 78°
2026-05-07 20:58 40.43641 108.01683 37076 ft 531 kts 79°
2026-05-07 20:59 40.44753 108.11276 37073 ft 530 kts 79°
2026-05-07 20:59 40.45849 108.20844 37076 ft 530 kts 79°
2026-05-07 21:00 40.46935 108.30403 37082 ft 529 kts 79°
2026-05-07 21:00 40.48014 108.39960 37079 ft 528 kts 79°
2026-05-07 21:01 40.48904 108.47902 37085 ft 528 kts 79°
2026-05-07 21:01 40.49965 108.57431 37072 ft 527 kts 79°
2026-05-07 21:02 40.51188 108.68505 37085 ft 526 kts 79°
2026-05-07 21:02 40.52061 108.76474 37099 ft 525 kts 79°
2026-05-07 21:03 40.53094 108.85977 37110 ft 525 kts 79°
2026-05-07 21:03 40.54120 108.95480 37109 ft 525 kts 79°
2026-05-07 21:04 40.55138 109.04984 37111 ft 525 kts 79°
2026-05-07 21:04 40.56142 109.14441 37108 ft 525 kts 79°
2026-05-07 21:05 40.57147 109.23985 37106 ft 525 kts 79°
2026-05-07 21:05 40.58143 109.33518 37116 ft 525 kts 79°
2026-05-07 21:06 40.59130 109.43042 37110 ft 525 kts 79°
2026-05-07 21:06 40.60110 109.52577 37118 ft 526 kts 79°
2026-05-07 21:07 40.61076 109.62059 37113 ft 526 kts 79°
2026-05-07 21:07 40.62040 109.71598 37121 ft 526 kts 79°
2026-05-07 21:08 40.62996 109.81151 37117 ft 526 kts 79°
2026-05-07 21:08 40.63945 109.90703 37120 ft 526 kts 79°
2026-05-07 21:09 40.64752 110.00286 37126 ft 528 kts 85°
2026-05-07 21:09 40.64740 110.09958 37127 ft 529 kts 89°
2026-05-07 21:10 40.64609 110.19590 37122 ft 529 kts 89°
2026-05-07 21:10 40.64524 110.29266 37118 ft 528 kts 88°
2026-05-07 21:11 40.64460 110.38940 37130 ft 529 kts 88°
2026-05-07 21:11 40.64345 110.53466 37126 ft 529 kts 88°
2026-05-07 21:12 40.64257 110.63152 37134 ft 529 kts 88°
2026-05-07 21:12 40.64162 110.72853 37121 ft 529 kts 88°
2026-05-07 21:13 40.64059 110.82551 37136 ft 530 kts 88°
2026-05-07 21:13 40.63946 110.92258 37130 ft 531 kts 88°
2026-05-07 21:14 40.63825 111.01980 37130 ft 531 kts 89°
2026-05-07 21:14 40.63695 111.11704 37140 ft 531 kts 89°
2026-05-07 21:15 40.63560 111.21427 37136 ft 531 kts 88°
2026-05-07 21:15 40.63419 111.31153 37138 ft 531 kts 88°
2026-05-07 21:16 40.63271 111.40886 37151 ft 532 kts 89°
2026-05-07 21:16 40.63113 111.50564 37152 ft 532 kts 89°
2026-05-07 21:17 40.62945 111.60310 37153 ft 532 kts 89°
2026-05-07 21:17 40.62769 111.70048 37159 ft 532 kts 89°
2026-05-07 21:18 40.62584 111.79793 37162 ft 532 kts 89°
2026-05-07 21:18 40.62394 111.89537 37161 ft 533 kts 88°
2026-05-07 21:19 40.62277 111.99292 37168 ft 533 kts 89°
2026-05-07 21:19 40.61979 112.09055 37169 ft 534 kts 89°
2026-05-07 21:20 40.61751 112.18815 37169 ft 534 kts 88°
2026-05-07 21:20 40.61535 112.28588 37162 ft 534 kts 89°
2026-05-07 21:21 40.61295 112.38301 37181 ft 535 kts 89°
2026-05-07 21:21 40.61049 112.48094 37183 ft 535 kts 88°
2026-05-07 21:22 40.60658 112.57904 37154 ft 537 kts 91°
2026-05-07 21:22 40.60024 112.67697 37171 ft 537 kts 92°
2026-05-07 21:23 40.59393 112.77504 37176 ft 539 kts 93°
2026-05-07 21:23 40.58593 112.87323 37190 ft 539 kts 92°
2026-05-07 21:24 40.57946 112.97141 37189 ft 539 kts 91°
2026-05-07 21:24 40.57322 113.06958 37198 ft 539 kts 92°
2026-05-07 21:25 40.56667 113.16774 37198 ft 539 kts 92°
2026-05-07 21:25 40.55987 113.26597 37207 ft 539 kts 92°
2026-05-07 21:26 40.55298 113.36406 37200 ft 539 kts 92°
2026-05-07 21:26 40.54606 113.46156 37208 ft 539 kts 92°
2026-05-07 21:27 40.53904 113.55961 37206 ft 539 kts 92°
2026-05-07 21:27 40.53192 113.65782 37199 ft 539 kts 92°
2026-05-07 21:28 40.52472 113.75583 37207 ft 539 kts 92°
2026-05-07 21:28 40.51744 113.85382 37213 ft 538 kts 92°
2026-05-07 21:29 40.51009 113.95163 37227 ft 539 kts 92°
2026-05-07 21:29 40.50341 114.04975 37212 ft 538 kts 90°
2026-05-07 21:30 40.49961 114.14771 37254 ft 537 kts 89°
2026-05-07 21:30 40.49615 114.24542 37255 ft 539 kts 89°
2026-05-07 21:31 40.49206 114.34411 37235 ft 538 kts 89°
2026-05-07 21:31 40.48765 114.44165 37240 ft 539 kts 90°
2026-05-07 21:32 40.48310 114.53999 37236 ft 539 kts 90°
2026-05-07 21:32 40.47849 114.63840 37245 ft 539 kts 90°
2026-05-07 21:33 40.47383 114.73673 37237 ft 539 kts 90°
2026-05-07 21:33 40.46912 114.83441 37227 ft 540 kts 90°
2026-05-07 21:34 40.46428 114.93276 37237 ft 540 kts 90°
2026-05-07 21:34 40.45936 115.03110 37235 ft 540 kts 90°
2026-05-07 21:35 40.45435 115.12949 37230 ft 540 kts 90°
2026-05-07 21:35 40.44924 115.22810 37230 ft 541 kts 90°
2026-05-07 21:36 40.44406 115.32671 37221 ft 541 kts 90°
2026-05-07 21:36 40.43878 115.42532 37211 ft 542 kts 90°
2026-05-07 21:37 40.43342 115.52400 37214 ft 542 kts 90°
2026-05-07 21:37 40.42659 115.62261 37209 ft 543 kts 92°
2026-05-07 21:38 40.41823 115.72080 37211 ft 543 kts 92°
2026-05-07 21:38 40.40982 115.81960 37211 ft 544 kts 92°
2026-05-07 21:39 40.40163 115.91845 37196 ft 545 kts 92°
2026-05-07 21:39 40.39344 116.01744 37199 ft 546 kts 92°
2026-05-07 21:40 40.38520 116.11579 37186 ft 545 kts 92°
2026-05-07 21:40 40.37681 116.21459 37173 ft 545 kts 92°
2026-05-07 21:41 40.36835 116.31333 37161 ft 545 kts 92°
2026-05-07 21:41 40.35978 116.41223 37161 ft 546 kts 92°
2026-05-07 21:42 40.35111 116.51100 37146 ft 545 kts 92°
2026-05-07 21:42 40.34223 116.60898 37131 ft 543 kts 96°
2026-05-07 21:43 40.33139 116.65674 37133 ft 550 kts 114°
2026-05-07 21:43 40.31110 116.69941 37138 ft 552 kts 132°
2026-05-07 21:43 40.28322 116.73362 37144 ft 548 kts 148°
2026-05-07 21:43 40.25059 116.75905 37136 ft 543 kts 160°
2026-05-07 21:44 40.21530 116.77422 37122 ft 528 kts 177°
2026-05-07 21:44 40.17920 116.78102 37143 ft 525 kts 179°
2026-05-07 21:44 40.10656 116.79326 37129 ft 526 kts 179°
2026-05-07 21:45 40.03411 116.80695 37120 ft 525 kts 178°
2026-05-07 21:45 39.96240 116.82143 37122 ft 525 kts 178°
2026-05-07 21:46 39.89015 116.83594 37119 ft 525 kts 178°
2026-05-07 21:46 39.81796 116.84845 37129 ft 518 kts 184°
2026-05-07 21:47 39.74677 116.84678 37117 ft 505 kts 195°
2026-05-07 21:47 39.67713 116.83474 37119 ft 504 kts 196°
2026-05-07 21:48 39.60765 116.82264 37121 ft 503 kts 196°
2026-05-07 21:48 39.53827 116.81101 37121 ft 502 kts 196°
2026-05-07 21:49 39.46936 116.79969 37123 ft 501 kts 196°
2026-05-07 21:49 39.40003 116.78836 37126 ft 501 kts 196°
2026-05-07 21:50 39.35702 116.78132 37127 ft 500 kts 196°
2026-05-07 21:50 39.28801 116.77009 37125 ft 499 kts 196°
2026-05-07 21:51 39.21907 116.75885 37129 ft 499 kts 196°
2026-05-07 21:51 39.15029 116.74763 37130 ft 498 kts 196°
2026-05-07 21:52 39.08153 116.73644 37131 ft 497 kts 196°
2026-05-07 21:52 39.01286 116.72528 37132 ft 497 kts 196°
2026-05-07 21:53 38.94472 116.71424 37144 ft 496 kts 197°
2026-05-07 21:53 38.87600 116.70312 37130 ft 496 kts 197°
2026-05-07 21:54 38.80743 116.69205 37135 ft 496 kts 197°
2026-05-07 21:54 38.73936 116.68106 37134 ft 496 kts 197°
2026-05-07 21:55 38.67047 116.66995 37137 ft 496 kts 197°
2026-05-07 21:55 38.60215 116.65975 37148 ft 499 kts 195°
2026-05-07 21:56 38.53284 116.65231 37144 ft 500 kts 194°
2026-05-07 21:56 38.46355 116.64486 37147 ft 499 kts 195°
2026-05-07 21:57 38.39444 116.63690 37146 ft 498 kts 195°
2026-05-07 21:57 38.32546 116.63022 37147 ft 505 kts 189°
2026-05-07 21:58 38.25421 116.63871 37152 ft 521 kts 178°
2026-05-07 21:58 38.18353 116.66378 37152 ft 530 kts 171°
2026-05-07 21:59 38.11304 116.69117 37150 ft 529 kts 172°
2026-05-07 21:59 38.04240 116.71765 37148 ft 530 kts 172°
2026-05-07 22:00 37.97178 116.74475 37155 ft 530 kts 172°
2026-05-07 22:00 37.90146 116.77170 37156 ft 531 kts 172°
2026-05-07 22:01 37.83069 116.79864 37157 ft 530 kts 172°
2026-05-07 22:01 37.76011 116.82540 37149 ft 530 kts 173°
2026-05-07 22:02 37.68935 116.85217 37157 ft 530 kts 173°
2026-05-07 22:02 37.61844 116.87896 37152 ft 530 kts 173°
2026-05-07 22:03 37.54801 116.90550 37164 ft 531 kts 173°
2026-05-07 22:03 37.47718 116.93216 37161 ft 530 kts 173°
2026-05-07 22:04 37.40683 116.95857 37167 ft 529 kts 174°
2026-05-07 22:04 37.33625 116.98499 37162 ft 528 kts 174°
2026-05-07 22:05 37.26631 117.01296 37202 ft 535 kts 170°
2026-05-07 22:05 37.23135 117.02934 37434 ft 538 kts 169°
2026-05-07 22:05 37.19633 117.04602 37861 ft 536 kts 169°
2026-05-07 22:06 37.16154 117.06254 38326 ft 533 kts 169°
2026-05-07 22:06 37.12696 117.07884 38770 ft 531 kts 170°
2026-05-07 22:06 37.09243 117.09499 39070 ft 530 kts 170°
2026-05-07 22:06 37.05781 117.11111 39123 ft 531 kts 170°
2026-05-07 22:07 36.98863 117.14328 39181 ft 530 kts 170°
2026-05-07 22:07 36.91949 117.17543 39174 ft 529 kts 170°
2026-05-07 22:08 36.85058 117.20351 39176 ft 514 kts 179°
2026-05-07 22:08 36.78108 117.21601 39193 ft 498 kts 189°
2026-05-07 22:09 36.71257 117.21601 39199 ft 491 kts 193°
2026-05-07 22:09 36.64433 117.21482 39192 ft 490 kts 193°
2026-05-07 22:10 36.57620 117.21419 39200 ft 488 kts 193°
2026-05-07 22:10 36.50819 117.21370 39196 ft 489 kts 193°
2026-05-07 22:11 36.43996 117.21456 39212 ft 497 kts 187°
2026-05-07 22:11 36.37054 117.22920 39194 ft 517 kts 175°
2026-05-07 22:12 36.30142 117.25543 39202 ft 519 kts 173°
2026-05-07 22:12 36.23247 117.28218 39211 ft 519 kts 174°
2026-05-07 22:13 36.16387 117.30789 39215 ft 518 kts 174°
2026-05-07 22:13 36.09469 117.33343 39213 ft 518 kts 174°
2026-05-07 22:14 36.02575 117.35890 39218 ft 517 kts 174°
2026-05-07 22:14 35.95687 117.38451 39210 ft 517 kts 174°
2026-05-07 22:15 35.88809 117.41038 39213 ft 516 kts 174°
2026-05-07 22:15 35.81942 117.43616 39211 ft 516 kts 174°
2026-05-07 22:16 35.75074 117.46183 39215 ft 515 kts 174°
2026-05-07 22:16 35.68217 117.48738 39222 ft 515 kts 174°
2026-05-07 22:17 35.61402 117.51273 39224 ft 514 kts 174°
2026-05-07 22:17 35.54547 117.53817 39220 ft 514 kts 174°
2026-05-07 22:18 35.44287 117.57618 39226 ft 513 kts 174°
2026-05-07 22:19 35.37456 117.60143 39227 ft 513 kts 174°
2026-05-07 22:19 35.30663 117.62649 39232 ft 512 kts 173°
2026-05-07 22:20 35.23838 117.65163 39229 ft 512 kts 173°
2026-05-07 22:20 35.17018 117.67669 39229 ft 511 kts 173°
2026-05-07 22:21 35.10190 117.70172 39227 ft 511 kts 173°
2026-05-07 22:21 35.03369 117.72670 39231 ft 512 kts 173°
2026-05-07 22:22 34.96596 117.75139 39225 ft 511 kts 173°
2026-05-07 22:22 34.89791 117.77612 39219 ft 510 kts 173°
2026-05-07 22:23 34.82982 117.80080 39231 ft 509 kts 173°
2026-05-07 22:23 34.76175 117.82509 39225 ft 509 kts 173°
2026-05-07 22:24 34.69430 117.84937 39226 ft 508 kts 173°
2026-05-07 22:24 34.62643 117.87377 39230 ft 508 kts 173°
2026-05-07 22:25 34.55864 117.89805 39224 ft 507 kts 173°
2026-05-07 22:25 34.49094 117.92224 39228 ft 507 kts 173°
2026-05-07 22:26 34.42327 117.94638 39227 ft 506 kts 173°
2026-05-07 22:26 34.35571 117.97042 39228 ft 506 kts 173°
2026-05-07 22:27 34.28853 117.99431 39226 ft 506 kts 173°
2026-05-07 22:27 34.22096 118.01876 39227 ft 507 kts 172°
2026-05-07 22:28 34.15350 118.04364 39223 ft 507 kts 172°
2026-05-07 22:28 34.08604 118.06834 39230 ft 506 kts 172°
2026-05-07 22:29 34.01816 118.09303 39243 ft 514 kts 173°
2026-05-07 22:29 33.94931 118.11820 39237 ft 519 kts 173°
2026-05-07 22:30 33.88044 118.14347 39225 ft 515 kts 173°
2026-05-07 22:30 33.81277 118.17401 39237 ft 526 kts 163°
2026-05-07 22:31 33.74939 118.21888 39230 ft 537 kts 153°
2026-05-07 22:31 33.68796 118.27092 39232 ft 537 kts 152°
2026-05-07 22:32 33.62734 118.32223 39230 ft 536 kts 153°
2026-05-07 22:32 33.56616 118.37309 39229 ft 535 kts 153°
2026-05-07 22:33 33.50474 118.42373 39228 ft 534 kts 153°
2026-05-07 22:33 33.44352 118.47414 39229 ft 534 kts 153°
2026-05-07 22:34 33.38227 118.52455 39234 ft 534 kts 153°
2026-05-07 22:34 33.32144 118.57453 39233 ft 533 kts 153°
2026-05-07 22:35 33.26024 118.62472 39231 ft 533 kts 153°
2026-05-07 22:35 33.19896 118.67494 39230 ft 534 kts 153°
2026-05-07 22:36 33.13791 118.72561 39231 ft 534 kts 153°
2026-05-07 22:36 33.07695 118.77638 39229 ft 534 kts 153°
2026-05-07 22:37 33.01595 118.82695 39228 ft 534 kts 153°
2026-05-07 22:37 32.95483 118.87744 39227 ft 534 kts 153°
2026-05-07 22:38 32.89416 118.92748 39231 ft 534 kts 153°
2026-05-07 22:38 32.83297 118.97794 39225 ft 534 kts 153°
2026-05-07 22:39 32.77210 119.02854 39232 ft 534 kts 153°
2026-05-07 22:39 32.72156 119.07059 39227 ft 534 kts 153°
2026-05-07 22:40 32.66064 119.12114 39227 ft 533 kts 153°
2026-05-07 22:40 32.59979 119.17146 39223 ft 533 kts 153°
2026-05-07 22:41 32.53884 119.22177 39232 ft 533 kts 153°
2026-05-07 22:41 32.47790 119.27199 39223 ft 534 kts 153°
2026-05-07 22:42 32.41683 119.32224 39220 ft 534 kts 153°
2026-05-07 22:42 32.35570 119.37246 39222 ft 535 kts 153°
2026-05-07 22:43 32.29458 119.42257 39220 ft 535 kts 153°
2026-05-07 22:43 32.23370 119.47242 39215 ft 535 kts 153°
2026-05-07 22:44 32.17238 119.52255 39218 ft 536 kts 153°
2026-05-07 22:44 32.11104 119.57258 39218 ft 536 kts 153°
2026-05-07 22:45 32.04966 119.62256 39217 ft 536 kts 153°
2026-05-07 22:45 31.98831 119.67277 39215 ft 539 kts 150°
2026-05-07 22:46 31.93187 119.73313 38469 ft 562 kts 138°
2026-05-07 22:46 31.90669 119.76839 37733 ft 566 kts 130°
2026-05-07 22:46 31.88455 119.80604 37021 ft 565 kts 128°
2026-05-07 22:46 31.86292 119.84456 36287 ft 563 kts 127°
2026-05-07 22:47 31.84147 119.88307 35495 ft 561 kts 127°
2026-05-07 22:47 31.81995 119.92137 34630 ft 561 kts 127°
2026-05-07 22:47 31.79818 119.95955 33622 ft 561 kts 128°
2026-05-07 22:47 31.77625 119.99756 32608 ft 561 kts 128°
2026-05-07 22:48 31.75434 120.03531 31677 ft 558 kts 128°
2026-05-07 22:48 31.73244 120.07295 30674 ft 557 kts 128°
2026-05-07 22:48 31.71062 120.11040 29744 ft 553 kts 128°
2026-05-07 22:48 31.68904 120.14750 29022 ft 544 kts 128°
2026-05-07 22:49 31.66814 120.18345 28366 ft 536 kts 128°
2026-05-07 22:49 31.64727 120.21926 27721 ft 528 kts 128°
2026-05-07 22:49 31.62661 120.25468 27084 ft 521 kts 128°
2026-05-07 22:49 31.60626 120.28957 26468 ft 515 kts 128°
2026-05-07 22:50 31.58678 120.32464 25851 ft 512 kts 122°
2026-05-07 22:50 31.57260 120.36290 25250 ft 511 kts 111°
2026-05-07 22:50 31.56159 120.40233 24657 ft 506 kts 109°
2026-05-07 22:50 31.55130 120.44169 24054 ft 502 kts 109°
2026-05-07 22:51 31.54098 120.48056 23397 ft 498 kts 110°
2026-05-07 22:51 31.53029 120.51904 22752 ft 492 kts 110°
2026-05-07 22:51 31.51953 120.55634 22165 ft 486 kts 111°
2026-05-07 22:51 31.50855 120.59358 21583 ft 481 kts 111°
2026-05-07 22:52 31.49758 120.63041 21023 ft 475 kts 111°
2026-05-07 22:52 31.48675 120.66676 20471 ft 470 kts 111°
2026-05-07 22:52 31.47602 120.70281 19914 ft 466 kts 111°
2026-05-07 22:52 31.46541 120.73852 19378 ft 462 kts 111°
2026-05-07 22:53 31.45490 120.77394 18804 ft 459 kts 111°
2026-05-07 22:53 31.44437 120.80907 18203 ft 455 kts 112°
2026-05-07 22:53 31.43357 120.84374 17607 ft 451 kts 112°
2026-05-07 22:53 31.42276 120.87809 16945 ft 449 kts 112°
2026-05-07 22:54 31.41220 120.91185 16336 ft 446 kts 111°
2026-05-07 22:54 31.40130 120.94553 15765 ft 438 kts 115°
2026-05-07 22:54 31.38528 120.97482 15523 ft 419 kts 132°
2026-05-07 22:54 31.36614 121.00064 15361 ft 421 kts 133°
2026-05-07 22:55 31.34703 121.02666 15162 ft 421 kts 132°
2026-05-07 22:55 31.32809 121.05287 14967 ft 421 kts 131°
2026-05-07 22:55 31.30935 121.07912 14777 ft 421 kts 131°
2026-05-07 22:55 31.29069 121.10543 14587 ft 420 kts 131°
2026-05-07 22:56 31.27210 121.13174 14387 ft 420 kts 130°
2026-05-07 22:56 31.25351 121.15804 14198 ft 419 kts 130°
2026-05-07 22:56 31.23494 121.18429 14006 ft 419 kts 130°
2026-05-07 22:56 31.21640 121.21049 13790 ft 417 kts 130°
2026-05-07 22:57 31.19794 121.23655 13585 ft 416 kts 130°
2026-05-07 22:57 31.17950 121.26256 13391 ft 414 kts 130°
2026-05-07 22:57 31.16116 121.28842 13199 ft 413 kts 130°
2026-05-07 22:57 31.14290 121.31413 13006 ft 411 kts 130°
2026-05-07 22:58 31.12570 121.34014 12806 ft 409 kts 121°
2026-05-07 22:58 31.11522 121.37071 12557 ft 403 kts 102°
2026-05-07 22:58 31.10877 121.40264 12323 ft 405 kts 102°
2026-05-07 22:58 31.10200 121.43401 12061 ft 402 kts 103°
2026-05-07 22:59 31.09492 121.46552 11807 ft 399 kts 103°
2026-05-07 22:59 31.08780 121.49663 11555 ft 397 kts 104°
2026-05-07 22:59 31.08066 121.52762 11303 ft 392 kts 104°
2026-05-07 22:59 31.07367 121.55785 11036 ft 380 kts 104°
2026-05-07 23:00 31.06690 121.58722 10799 ft 369 kts 104°
2026-05-07 23:00 31.06030 121.61575 10566 ft 358 kts 104°
2026-05-07 23:00 31.05391 121.64343 10341 ft 349 kts 104°
2026-05-07 23:00 31.04766 121.67036 10135 ft 338 kts 105°
2026-05-07 23:01 31.03821 121.69454 9901 ft 323 kts 128°
2026-05-07 23:01 31.02229 121.71192 9790 ft 308 kts 148°
2026-05-07 23:01 31.00334 121.72277 9434 ft 302 kts 163°
2026-05-07 23:01 30.98331 121.73013 8984 ft 302 kts 165°
2026-05-07 23:02 30.96320 121.73738 8548 ft 302 kts 164°
2026-05-07 23:02 30.94323 121.74467 8166 ft 300 kts 164°
2026-05-07 23:02 30.92360 121.75197 7790 ft 299 kts 163°
2026-05-07 23:02 30.90383 121.75937 7427 ft 297 kts 163°
2026-05-07 23:03 30.88419 121.76677 7070 ft 296 kts 163°
2026-05-07 23:03 30.86465 121.77413 6704 ft 295 kts 162°
2026-05-07 23:03 30.84522 121.78148 6305 ft 293 kts 162°
2026-05-07 23:03 30.82581 121.78879 5872 ft 293 kts 162°
2026-05-07 23:04 30.80647 121.79608 5484 ft 291 kts 161°
2026-05-07 23:04 30.78734 121.80325 5124 ft 287 kts 161°
2026-05-07 23:04 30.76845 121.81038 4754 ft 282 kts 158°
2026-05-07 23:04 30.75206 121.82222 4169 ft 278 kts 128°
2026-05-07 23:05 30.74307 121.84112 4029 ft 261 kts 100°
2026-05-07 23:05 30.74081 121.86182 4028 ft 258 kts 84°
2026-05-07 23:05 30.74404 121.88196 4032 ft 253 kts 70°
2026-05-07 23:05 30.75036 121.90073 4021 ft 247 kts 53°
2026-05-07 23:06 30.76294 121.91376 4020 ft 244 kts 24°
2026-05-07 23:06 30.77955 121.91716 4020 ft 246 kts 358°
2026-05-07 23:06 30.79630 121.91464 4041 ft 247 kts 353°
2026-05-07 23:06 30.81321 121.91091 4039 ft 248 kts 349°
2026-05-07 23:07 30.82994 121.90572 4008 ft 249 kts 346°
2026-05-07 23:07 30.84652 121.89975 3777 ft 249 kts 345°
2026-05-07 23:07 30.86258 121.89370 3568 ft 246 kts 345°
2026-05-07 23:07 30.87888 121.88751 3357 ft 247 kts 345°
2026-05-07 23:08 30.89517 121.88138 3164 ft 244 kts 345°
2026-05-07 23:08 30.91135 121.87531 3211 ft 245 kts 345°
2026-05-07 23:08 30.92762 121.86915 3216 ft 247 kts 346°
2026-05-07 23:08 30.94405 121.86293 3221 ft 249 kts 346°
2026-05-07 23:09 30.96052 121.85676 3225 ft 249 kts 345°
2026-05-07 23:09 30.97699 121.85056 3119 ft 250 kts 346°
2026-05-07 23:09 30.99360 121.84427 2772 ft 248 kts 346°
2026-05-07 23:09 31.00991 121.83807 2445 ft 244 kts 345°
2026-05-07 23:10 31.02552 121.83213 2131 ft 226 kts 345°
2026-05-07 23:10 31.03986 121.82675 1820 ft 205 kts 344°
2026-05-07 23:10 31.05262 121.82192 1538 ft 182 kts 345°
2026-05-07 23:10 31.06375 121.81774 1311 ft 160 kts 346°
2026-05-07 23:11 31.07359 121.81401 1103 ft 139 kts 347°
2026-05-07 23:11 31.08278 121.81055 933 ft 137 kts 346°
2026-05-07 23:11 31.09173 121.80716 742 ft 134 kts 345°
2026-05-07 23:11 31.10069 121.80378 576 ft 137 kts 343°
2026-05-07 23:12 31.10995 121.80027 378 ft 138 kts 343°
2026-05-07 23:12 31.11912 121.79678 201 ft 139 kts 343°
2026-05-07 23:12 31.12838 121.79328 37 ft 139 kts 342°
2026-05-07 23:12 31.13643 121.79026 27 ft 84 kts 342°
2026-05-07 23:13 31.14009 121.78888 27 ft 48 kts 341°
2026-05-07 23:13 31.14164 121.78774 26 ft 19 kts 315°
2026-05-07 23:13 31.14246 121.78655 27 ft 19 kts 279°
2026-05-07 23:13 31.14208 121.78523 28 ft 16 kts 200°
2026-05-07 23:14 31.14094 121.78546 28 ft 17 kts 163°
2026-05-07 23:14 31.13982 121.78584 28 ft 17 kts 163°
2026-05-07 23:14 31.13871 121.78628 26 ft 17 kts 161°
2026-05-07 23:14 31.13803 121.78600 27 ft 12 kts 238°
2026-05-07 23:15 31.13781 121.78534 27 ft 0 kts 252°
2026-05-07 23:15 31.13781 121.78535 27 ft 0 kts 252°
2026-05-07 23:17 31.13781 121.78534 28 ft 0 kts 252°
2026-05-07 23:17 31.13781 121.78535 27 ft 0 kts 252°